GEFSSGP_con_cape1000_000.txt.gz
Probability
0 0 0 0 0 0 0 0 0 0 0 0 0 0 6 6 29 0 0 0 0 84 100 100 100 100 100 100 100 100 100 100 100 100 100 100 100 100 100 100 100 100 100 100 97 97 61 10 13
0 0 0 0 0 0 0 0 0 0 0 0 0 0 3 0 0 0 0 0 23 97 100 100 100 100 100 100 100 100 100 100 100 100 100 100 100 100 100 100 100 100 100 100 100 97 81 55 42
0 0 0 0 0 0 0 0 0 0 0 0 0 0 0 0 0 0 0 3 39 100 100 100 100 100 100 100 100 100 100 100 100 100 100 100 97 97 100 100 100 100 100 100 100 100 100 97 87
0 0 0 0 0 0 0 0 0 0 0 6 10 0 0 16 0 0 3 10 29 100 100 100 100 100 100 100 100 100 100 100 100 100 100 100 94 87 65 81 94 84 74 81 97 100 100 97 100
0 0 0 0 0 0 0 0 0 0 0 6 26 0 0 6 0 0 3 3 35 100 100 100 100 100 100 100 100 100 100 100 100 100 100 100 100 100 87 77 84 87 81 87 94 100 100 100 100
0 0 0 0 0 0 0 0 0 0 0 16 0 0 0 0 0 0 0 3 77 100 100 100 100 100 100 100 100 100 100 100 100 100 100 100 100 100 97 100 100 100 97 97 87 100 100 100 100
0 0 0 0 0 0 0 0 0 0 10 87 68 0 0 0 0 0 0 71 94 100 100 100 100 100 100 100 100 100 100 100 100 100 100 100 100 100 100 100 100 100 100 100 100 100 100 100 100
0 0 0 0 0 0 0 0 0 0 26 81 32 3 0 0 6 68 90 100 100 100 100 100 100 100 100 100 100 100 100 100 100 100 100 100 100 100 100 100 100 100 100 100 100 100 100 100 100
0 0 0 0 0 0 0 0 26 35 0 0 0 6 0 0 39 100 100 100 100 94 100 94 77 77 87 100 100 100 100 100 100 100 100 100 94 94 100 100 100 100 100 100 100 100 100 100 100
0 0 0 0 0 0 0 0 0 48 0 0 0 0 3 13 68 94 100 100 71 29 29 42 26 16 45 97 97 100 100 100 100 100 87 61 32 81 100 100 100 100 100 100 100 100 100 100 100
0 0 0 0 0 0 0 0 0 58 19 0 0 0 10 35 81 90 100 97 61 16 16 32 26 10 10 61 71 87 87 90 97 100 87 23 32 68 97 100 100 100 100 100 100 100 100 100 100
0 0 0 0 0 0 0 0 0 32 74 0 0 0 32 16 52 90 94 97 61 26 29 23 26 10 3 0 29 77 84 87 87 94 90 65 74 84 84 90 100 100 100 100 100 100 100 90 87
0 0 0 0 0 0 0 0 0 3 65 3 0 61 45 13 23 74 94 97 90 74 42 13 29 13 3 0 16 19 32 71 84 84 84 77 87 94 90 87 77 97 100 100 100 94 90 90 81
0 0 0 0 0 0 0 0 0 16 39 0 0 94 68 58 42 23 71 90 97 100 84 10 19 13 0 0 16 32 52 52 58 48 58 65 81 94 100 97 87 71 81 90 97 94 84 81 87
0 0 0 0 0 0 0 0 0 65 90 97 97 100 100 100 100 94 71 74 97 87 94 71 26 16 3 3 35 74 94 94 45 26 35 58 81 94 100 100 97 55 6 6 13 58 29 32 35
0 0 0 0 0 0 0 0 6 87 100 100 100 100 100 100 100 97 100 100 100 100 100 100 100 100 77 81 94 94 97 97 90 74 48 81 97 100 100 100 87 52 16 39 71 55 42 13 6
0 0 0 0 0 0 0 0 61 71 97 100 100 100 100 100 100 84 100 100 100 100 100 100 97 97 97 94 90 87 97 94 97 97 90 81 94 100 100 100 94 58 48 84 65 29 13 6 0
0 0 0 0 0 0 0 0 61 87 97 100 100 100 100 100 100 84 94 100 100 100 97 100 90 94 90 87 81 61 45 13 39 35 45 61 84 97 97 97 84 61 77 90 48 29 0 0 0
0 0 0 0 0 0 0 0 0 58 97 97 97 100 100 100 100 97 97 100 97 94 94 97 100 100 97 71 39 10 10 16 23 26 71 65 65 81 65 77 74 71 90 90 45 10 3 0 0
0 0 0 0 0 0 0 0 0 6 71 97 100 97 100 100 100 97 90 90 87 81 90 90 90 100 97 87 65 55 48 32 23 26 32 32 29 68 61 3 26 45 32 29 52 26 6 0 0
0 0 0 0 0 0 0 0 3 87 100 100 97 97 94 90 90 84 87 87 84 68 45 48 45 71 84 94 84 55 35 23 3 6 10 10 13 29 77 52 10 10 3 10 6 35 35 16 0
0 0 0 0 0 0 0 0 0 77 81 81 77 77 52 48 65 55 48 19 26 13 3 10 16 45 77 90 77 42 16 3 0 0 0 0 0 0 26 58 55 29 3 0 0 3 19 16 6
0 0 0 0 0 0 0 0 0 0 10 10 19 3 0 3 0 0 0 0 0 0 0 0 0 0 23 29 16 6 0 0 0 0 0 0 0 0 0 0 0 10 6 0 0 0 0 0 3
0 0 0 0 0 0 0 0 0 0 0 0 0 0 0 0 0 0 0 0 0 0 0 0 0 0 3 6 6 6 0 0 0 0 0 0 0 0 0 0 0 0 0 0 0 0 0 0 0
0 0 0 0 0 0 0 0 0 0 0 0 0 0 0 0 0 0 0 0 0 0 0 0 0 0 3 3 3 0 0 0 0 0 0 0 0 0 0 0 0 0 0 0 0 0 0 0 0
0 0 0 0 0 0 0 0 0 0 0 29 0 0 0 0 0 0 0 0 0 0 0 0 3 0 0 0 0 0 0 0 0 0 0 0 0 0 0 0 0 0 0 0 0 0 0 0 0
0 0 0 0 0 0 0 0 0 0 0 0 0 0 0 0 0 0 0 0 0 0 0 0 0 0 0 0 0 0 0 0 0 0 0 0 0 0 0 0 0 0 0 0 0 0 0 0 0
0 0 0 0 0 0 0 0 0 0 0 0 0 0 0 0 0 0 0 0 0 0 0 0 0 0 0 0 0 0 0 0 0 0 0 0 0 0 0 0 0 0 0 0 0 0 0 0 0
0 0 0 0 0 0 0 0 0 0 0 0 0 0 0 0 0 0 0 0 0 0 0 0 0 0 0 0 0 0 0 0 0 0 0 0 0 0 0 0 0 0 0 0 0 0 0 0 0
0 0 0 0 0 0 0 0 0 0 0 0 0 0 0 0 0 0 0 0 0 0 0 0 0 0 0 0 0 0 0 0 0 0 0 0 0 0 0 0 0 0 0 0 0 0 0 0 0

GEFSSGP_con_cape1000_006.txt.gz
Probability
0 0 0 0 0 0 0 0 0 0 0 0 0 0 0 0 0 0 0 0 0 10 90 100 94 100 94 68 90 100 97 100 100 100 100 100 100 100 100 100 100 100 29 13 6 3 26 55 55
0 0 0 0 0 0 0 0 0 0 0 0 0 0 0 0 0 0 0 0 0 65 90 61 90 100 97 84 100 100 100 100 100 100 100 100 100 100 100 100 97 90 65 48 16 3 0 3 10
0 0 0 0 0 0 0 0 0 0 0 0 0 0 0 0 0 0 0 0 6 84 90 55 100 100 100 90 100 100 100 100 100 100 100 100 100 100 100 100 94 94 94 77 52 39 19 3 3
0 0 0 0 0 0 0 0 0 0 0 3 0 0 0 0 0 0 0 0 19 94 97 81 100 100 100 97 100 100 100 100 100 100 100 100 100 100 100 100 97 94 90 94 94 90 94 77 58
0 0 0 0 0 0 0 0 0 0 0 3 0 3 0 0 0 0 0 3 52 97 97 100 100 100 100 100 94 100 100 100 100 100 100 100 100 100 100 100 100 100 90 94 100 100 100 100 100
0 0 0 0 0 0 0 0 0 0 6 0 0 0 0 0 0 0 6 23 87 100 100 100 100 100 100 100 100 100 100 100 100 100 100 100 100 100 100 100 100 100 100 100 100 100 100 100 100
0 0 0 0 0 0 0 0 3 3 16 13 6 0 0 0 0 0 6 52 100 100 100 100 100 100 100 100 100 100 100 100 100 100 100 100 100 100 100 100 100 100 100 100 100 100 100 100 100
0 0 0 0 0 0 0 0 6 19 68 52 10 0 0 0 0 0 6 61 100 100 100 100 100 100 100 100 100 100 100 100 100 100 100 100 100 100 100 100 100 100 100 100 100 100 100 100 100
0 0 0 0 0 0 0 3 16 10 10 10 6 3 0 0 0 0 29 77 100 100 100 100 100 100 100 100 100 100 100 100 100 100 100 100 100 100 100 100 100 100 100 100 100 100 100 100 100
0 0 0 0 0 0 0 0 19 0 0 0 0 0 0 0 16 35 16 45 100 100 100 100 97 97 100 100 100 100 100 100 100 100 100 100 100 100 100 100 100 100 100 100 100 100 100 100 100
0 0 0 0 0 0 0 0 23 3 10 3 3 3 0 10 68 84 81 45 55 100 100 100 97 90 94 100 87 90 100 100 100 100 100 100 94 77 100 100 100 100 100 100 100 100 100 100 100
0 0 0 0 0 0 0 0 16 3 0 0 3 58 29 42 74 100 100 94 61 71 94 94 94 68 58 68 58 65 84 90 90 94 100 94 81 55 55 74 97 100 100 100 100 100 100 100 100
0 0 0 0 0 0 0 0 0 10 0 0 26 81 94 90 94 100 100 100 84 55 48 45 71 65 52 26 26 32 65 87 87 90 97 100 97 94 65 74 90 97 100 100 100 100 100 100 100
0 0 0 0 0 0 0 0 3 13 0 0 19 65 87 90 94 100 100 100 90 65 42 23 23 35 32 26 19 23 42 77 84 90 97 97 100 100 94 87 90 90 100 100 100 97 100 100 100
0 0 0 0 0 0 0 0 10 13 13 39 52 52 71 71 84 94 97 97 97 90 61 42 26 13 6 6 3 3 16 42 55 81 87 94 94 94 81 71 74 97 100 94 90 97 94 90 84
0 0 0 0 0 0 0 0 10 19 52 90 100 100 97 94 97 97 90 97 97 97 90 71 68 45 23 6 3 3 10 32 55 77 68 68 71 68 65 84 90 90 100 87 77 77 61 61 68
0 0 0 0 0 0 0 0 55 87 87 100 100 100 97 90 90 94 100 97 100 100 100 100 90 84 35 16 13 6 23 39 35 35 48 55 55 74 74 81 94 94 97 94 71 61 45 35 26
0 0 0 0 0 0 0 29 94 100 100 100 100 100 97 87 81 84 97 100 100 100 97 97 94 94 74 55 16 10 3 6 3 0 3 10 10 42 23 42 48 71 71 87 77 61 39 3 3
0 0 0 0 0 0 26 84 84 97 100 100 100 100 97 90 90 81 94 97 97 97 94 90 87 81 74 16 3 0 0 0 0 0 0 3 3 3 3 0 0 3 10 29 55 55 29 13 0
0 0 0 0 0 0 13 16 29 94 97 100 100 100 100 94 94 90 81 81 87 90 87 87 90 81 55 6 0 0 0 0 0 0 0 0 0 0 0 0 0 0 0 3 6 19 10 3 0
0 0 0 0 0 0 0 3 16 87 94 97 100 100 100 100 90 84 84 55 71 84 81 71 81 74 42 23 3 3 0 0 0 0 0 0 0 0 0 0 0 0 0 0 0 0 0 0 0
0 0 0 0 0 0 0 0 0 61 100 97 97 97 94 94 90 84 81 68 68 74 65 45 29 19 16 10 19 6 3 0 0 0 0 0 0 0 0 0 0 0 0 0 0 0 0 6 3
0 0 0 0 0 0 0 0 0 23 97 90 81 84 81 77 74 71 61 52 39 26 23 16 13 10 13 10 13 6 3 0 0 0 0 0 0 0 0 0 0 0 0 0 0 0 0 6 6
0 0 0 0 0 0 0 0 0 3 32 68 77 71 71 68 52 52 45 26 6 0 0 0 0 0 0 0 0 0 3 3 0 0 0 0 0 0 0 0 0 0 0 0 0 0 0 0 3
0 0 0 0 0 0 0 0 0 0 0 3 58 58 58 35 19 13 13 10 0 0 0 0 0 0 0 0 0 0 0 0 0 0 0 0 0 0 0 0 0 0 0 0 0 0 0 0 0
0 0 0 0 0 0 0 0 0 0 0 0 0 16 16 10 0 0 0 0 0 0 0 0 0 0 0 0 0 0 0 0 0 0 0 0 0 0 0 0 0 0 0 0 0 0 0 0 0
0 0 0 0 0 0 0 0 0 0 0 0 0 0 0 0 0 0 0 0 0 0 0 0 0 0 0 0 0 0 0 0 0 0 0 0 0 0 0 0 0 0 0 0 0 0 0 0 0
0 0 0 0 0 0 0 0 0 0 0 0 0 0 0 0 0 0 0 0 0 0 0 0 0 0 0 0 0 0 0 0 0 0 0 0 0 0 0 0 0 0 0 0 0 0 0 0 0
0 0 0 0 0 0 0 0 0 0 0 0 0 0 0 0 0 0 0 0 0 0 0 0 0 0 0 0 0 0 0 0 0 0 0 0 0 0 0 0 0 0 0 0 0 0 0 0 0
0 0 0 0 0 0 0 0 0 0 0 0 0 0 0 0 0 0 0 0 0 0 0 0 0 0 0 0 0 0 0 0 0 0 0 0 0 0 0 0 0 0 0 0 0 0 0 0 0

GEFSSGP_con_cape1000_012.txt.gz
Probability
0 0 0 0 3 0 0 0 0 0 0 0 0 0 0 0 0 55 23 0 6 42 77 61 100 97 100 100 100 100 100 100 100 100 100 100 100 100 100 68 35 13 23 42 65 71 71 71 90
0 0 0 0 0 0 0 0 0 0 0 0 0 0 0 0 3 23 3 0 10 19 42 13 100 97 100 100 100 100 100 100 100 100 100 100 100 100 97 87 39 10 0 0 0 13 19 19 42
0 0 0 0 0 0 0 0 0 0 0 0 0 0 0 0 0 0 0 0 3 26 35 87 100 97 94 100 100 100 100 100 100 100 100 100 100 100 90 74 55 29 19 13 3 0 0 0 3
0 0 0 0 0 0 0 0 0 3 3 0 3 0 0 0 0 0 0 0 10 23 16 90 100 97 97 100 100 100 100 100 100 100 100 100 97 94 81 90 90 84 71 65 52 42 32 10 0
0 0 0 0 0 0 0 0 0 0 0 13 0 0 0 16 0 0 0 0 13 10 10 81 100 100 100 100 100 100 100 100 100 100 100 100 100 97 97 100 100 100 97 94 97 97 94 90 61
0 0 0 0 0 0 0 0 0 3 13 26 6 0 16 74 19 3 0 0 3 6 10 87 100 100 100 100 100 100 100 100 100 100 100 100 100 100 100 100 100 100 100 100 100 97 97 100 100
0 0 0 0 0 0 0 0 0 0 3 65 32 6 19 90 71 39 32 26 10 3 3 94 90 100 100 100 100 100 100 100 100 100 100 100 100 100 100 100 100 100 100 100 100 100 100 100 100
0 0 0 0 0 0 0 0 6 6 23 97 61 26 23 100 97 94 97 97 84 29 10 97 65 94 100 100 100 100 100 100 100 100 100 100 100 100 100 100 100 100 100 100 100 100 100 100 100
0 0 0 0 0 0 0 0 10 58 90 100 94 90 94 100 100 100 100 100 100 100 68 71 55 100 100 87 100 100 100 100 100 100 100 100 100 97 100 100 100 100 100 100 100 100 100 100 100
0 0 0 0 0 0 0 0 0 19 45 90 100 100 100 100 100 100 100 100 100 100 100 97 87 100 100 97 100 100 100 100 100 100 100 100 100 100 100 94 100 100 100 100 100 100 100 100 100
0 0 0 0 0 0 0 0 0 6 3 35 97 100 100 100 100 100 100 100 100 100 100 100 100 100 100 100 100 100 100 100 100 100 100 100 100 100 100 100 100 100 100 100 100 100 100 100 100
0 0 0 0 0 0 0 0 0 0 0 61 87 100 100 100 100 100 100 100 100 100 100 100 100 100 100 100 100 100 100 100 100 100 100 100 100 100 100 100 100 100 100 100 97 100 100 100 100
0 0 0 0 0 0 0 0 0 0 6 58 90 100 100 100 100 100 100 100 100 100 100 100 100 100 100 100 100 100 100 100 100 100 100 100 100 100 100 100 100 100 100 100 100 100 100 100 100
0 0 0 0 0 0 0 0 0 0 3 68 94 100 100 100 100 100 100 100 100 100 100 100 100 100 100 100 100 100 100 100 100 100 100 100 100 100 100 100 100 100 100 100 100 100 100 100 100
0 0 0 0 0 0 0 0 0 0 6 65 94 100 100 100 100 100 100 100 100 100 100 100 100 100 100 100 100 100 100 100 100 100 100 100 100 100 100 97 97 100 100 100 100 100 100 100 97
0 0 0 0 0 0 0 0 0 3 6 55 90 100 100 100 100 100 100 100 100 100 100 100 100 100 100 100 100 100 100 100 100 100 100 100 100 100 100 100 100 100 97 100 100 100 100 100 100
0 0 0 0 0 0 0 0 0 0 6 61 97 100 100 100 100 100 100 100 100 100 100 100 100 100 100 100 100 100 100 100 100 100 97 94 84 84 90 94 97 90 84 84 90 90 97 97 100
0 0 0 0 0 0 0 0 10 39 48 77 100 100 100 100 100 100 100 100 100 100 100 100 100 100 97 97 100 94 87 71 58 52 71 65 42 32 26 23 26 26 26 29 42 58 77 87 90
0 0 0 0 0 0 0 3 39 97 94 100 100 100 100 100 100 100 100 94 97 100 100 97 97 94 94 90 61 26 16 10 16 19 26 13 10 3 13 0 3 10 3 13 16 6 3 16 35
0 0 0 0 0 0 0 3 39 94 100 100 100 100 100 100 97 97 90 84 84 97 100 97 97 94 94 84 65 58 35 0 0 3 32 26 6 3 0 0 0 0 3 3 3 6 0 0 0
0 0 0 0 0 0 0 0 6 65 94 100 100 100 100 97 90 90 71 61 61 81 97 94 97 94 90 87 55 61 97 84 19 29 52 35 19 3 0 0 0 0 0 0 0 13 3 0 0
0 0 0 0 0 0 0 0 0 0 29 84 97 100 100 94 90 68 52 45 48 71 94 100 100 97 94 94 77 45 84 3 10 81 16 42 16 0 0 0 0 3 0 0 0 0 10 26 16
0 0 0 0 0 0 0 0 0 0 0 3 61 97 100 90 77 55 42 68 81 87 94 97 100 97 94 94 97 97 74 32 13 65 71 48 13 0 0 0 0 10 10 6 3 13 29 26 29
0 0 0 0 0 0 0 0 0 0 0 10 29 81 84 84 81 68 55 68 77 71 71 77 90 100 97 97 84 90 97 97 94 87 58 29 6 3 0 0 0 3 3 6 10 10 16 48 58
0 0 0 0 0 0 0 0 0 0 0 6 26 52 65 58 32 19 19 26 32 35 42 55 61 90 90 77 71 87 97 97 97 90 48 29 6 0 0 0 0 0 6 3 3 6 13 23 52
0 0 0 0 0 0 0 0 0 0 0 6 13 10 6 0 0 0 0 0 3 0 3 13 42 68 61 45 68 94 94 84 58 77 42 19 6 0 0 0 0 0 3 3 3 3 6 6 35
0 0 0 0 0 0 0 0 0 0 0 0 0 0 0 0 0 0 0 0 0 0 0 0 16 19 42 39 77 94 94 97 94 90 77 16 16 0 0 0 0 0 3 3 3 6 6 19 23
0 0 0 0 0 0 0 0 0 0 0 0 0 0 0 0 0 0 0 0 0 0 0 0 0 0 3 3 26 19 81 90 100 97 77 52 32 16 3 0 0 3 3 3 6 6 6 19 32
0 0 0 0 0 0 0 0 0 0 0 0 0 0 0 0 0 0 0 0 0 0 0 0 0 0 0 0 0 3 13 35 77 94 84 84 65 19 10 0 0 0 0 3 3 0 0 3 6
0 0 0 0 0 0 0 0 0 0 0 0 0 0 0 0 0 0 0 0 0 0 0 0 0 0 0 0 0 0 0 0 6 26 61 74 77 42 10 0 0 0 0 0 0 0 0 0 0

GEFSSGP_con_cape1000_018.txt.gz
Probability
0 0 3 13 61 87 10 0 0 0 0 0 0 0 0 45 94 10 0 16 58 3 16 100 100 100 100 100 100 100 100 100 100 100 100 97 58 19 16 29 55 84 84 87 87 77 77 84 87
0 0 0 0 35 3 0 0 0 0 0 0 0 0 0 0 0 0 6 68 45 6 3 42 100 100 100 100 100 100 100 100 100 100 100 97 77 16 3 0 13 29 35 42 35 35 39 42 52
0 0 0 0 0 0 0 0 0 0 0 0 0 0 0 0 0 3 6 29 13 3 0 97 100 100 100 100 100 100 100 100 100 100 100 100 100 74 16 6 0 0 0 0 0 0 3 3 6
0 0 0 0 0 0 0 0 3 0 0 0 0 0 0 0 0 6 3 13 6 3 35 97 100 100 100 100 100 100 100 100 100 100 100 100 100 94 65 35 19 3 3 3 3 0 0 0 0
0 0 0 0 0 0 0 0 0 0 0 0 0 0 0 0 3 0 3 13 16 29 68 81 100 100 100 100 100 100 100 100 100 100 100 100 97 94 84 81 77 71 71 68 58 48 42 42 23
0 0 0 0 0 0 0 0 0 0 0 0 0 0 0 0 0 0 3 13 0 55 52 87 100 100 100 100 100 100 100 100 100 100 100 100 100 100 97 100 100 100 100 100 100 100 100 100 100
0 0 0 0 0 0 0 0 0 0 0 0 0 0 0 0 0 0 0 0 0 74 71 74 94 100 100 100 100 100 100 100 100 100 100 100 100 100 100 100 100 100 100 100 100 100 100 100 100
0 0 0 0 0 0 0 0 0 0 0 0 0 3 13 10 0 0 0 0 3 81 90 84 77 94 100 100 100 100 100 100 100 100 100 100 100 100 100 100 100 100 100 100 100 100 100 100 100
0 0 0 0 0 0 0 0 0 0 0 0 6 19 58 29 13 6 6 3 16 90 100 84 71 100 97 97 100 100 100 100 100 100 100 100 100 100 100 100 100 100 100 100 100 100 100 100 100
0 0 0 0 0 0 0 0 0 0 0 16 68 74 77 74 90 68 55 52 29 77 100 100 94 100 100 100 100 100 100 100 100 100 100 100 100 100 100 100 100 100 100 100 100 100 100 100 100
0 0 0 0 0 0 0 0 0 0 0 58 74 61 94 100 100 100 94 97 97 84 100 97 100 100 100 100 100 100 100 100 100 100 100 100 100 100 100 100 100 100 100 100 100 100 100 100 100
0 0 0 0 0 0 0 0 0 0 0 52 61 61 71 94 100 100 100 97 100 100 100 100 100 100 100 100 100 100 100 100 100 100 100 100 100 100 100 97 100 100 100 100 100 100 100 100 97
0 0 0 0 0 0 0 0 0 0 0 16 52 65 81 94 97 100 97 100 100 100 100 100 100 100 100 100 100 100 100 100 100 100 100 100 100 100 97 97 100 100 100 100 100 97 100 97 87
0 0 0 0 0 0 0 0 0 0 0 6 23 45 65 94 87 97 100 100 100 100 100 100 100 100 100 100 100 100 100 100 100 100 100 100 100 100 100 100 100 100 97 97 97 94 94 90 84
0 0 0 0 0 0 0 0 0 0 0 0 10 26 52 81 87 97 97 97 100 100 100 100 100 100 100 100 100 100 100 100 100 100 100 100 100 100 100 100 100 94 94 94 97 97 97 90 81
0 0 0 0 0 0 0 0 0 0 0 0 3 19 48 90 87 100 97 100 100 100 100 100 100 100 100 100 100 100 100 100 100 100 100 100 100 100 100 100 100 97 97 97 94 94 97 97 94
0 0 0 0 0 0 0 0 0 0 0 0 0 10 52 94 97 100 100 100 100 100 100 100 100 100 100 100 100 100 100 100 100 100 100 97 81 87 87 94 90 90 90 94 77 90 97 90 90
0 0 0 0 0 0 0 0 0 0 0 0 3 10 65 87 100 100 100 100 97 97 100 100 100 100 100 100 100 97 97 94 94 97 94 68 55 61 65 61 81 45 39 52 68 71 61 74 74
0 0 0 0 0 0 0 0 0 0 0 0 10 42 90 97 97 97 90 87 87 94 100 100 100 97 97 94 94 94 97 87 65 77 81 35 19 32 32 58 52 35 42 68 26 32 26 35 45
0 0 0 0 0 0 0 0 0 0 0 10 13 48 74 87 81 74 71 71 81 84 90 100 100 100 97 100 100 100 97 71 77 77 90 74 71 58 16 74 42 45 68 35 61 71 81 32 32
0 0 0 0 0 0 0 0 0 3 10 16 26 48 52 42 39 39 32 29 42 55 77 90 100 100 100 100 100 100 100 100 100 100 97 97 90 68 61 35 42 58 55 55 84 84 71 48 55
0 0 0 0 0 0 0 0 3 6 26 35 32 23 3 3 3 0 3 3 13 32 58 81 90 94 97 100 100 100 94 94 100 100 100 97 87 74 58 48 26 45 61 74 68 74 84 77 48
0 0 0 0 0 0 0 0 3 19 45 58 42 26 13 0 0 0 0 3 6 13 23 61 77 90 94 97 100 100 100 100 100 100 100 100 94 90 77 61 32 52 58 65 65 74 77 65 55
0 0 0 0 0 0 0 0 3 26 45 48 23 13 3 3 3 3 3 3 6 6 3 19 61 68 74 84 94 100 100 100 100 100 100 100 100 97 81 45 45 26 35 52 58 65 55 55 68
0 0 0 0 0 0 0 0 23 35 26 16 6 3 0 0 0 0 0 0 3 3 3 3 13 16 13 16 35 74 94 94 97 97 100 100 97 97 90 39 39 35 45 48 61 68 61 61 65
0 0 0 0 0 0 0 0 10 6 3 3 0 0 0 0 0 0 0 0 0 0 0 0 0 0 0 0 6 13 29 52 68 84 94 97 94 94 81 48 45 48 45 29 52 52 45 45 58
0 0 0 0 0 0 0 3 0 0 3 0 0 0 0 0 0 0 0 0 0 0 0 0 0 0 0 0 0 3 3 3 13 39 74 84 84 84 77 71 68 61 55 61 52 26 48 48 45
0 0 0 0 0 0 0 0 10 0 0 0 0 0 0 0 0 0 0 0 0 0 0 0 0 0 0 0 0 0 0 0 0 0 10 29 42 58 71 81 84 77 61 65 74 48 48 52 42
0 0 0 0 0 0 0 0 3 0 0 0 0 0 0 0 0 0 0 0 0 0 0 0 0 0 0 0 0 0 0 0 0 0 0 0 3 13 32 45 58 65 61 74 87 52 45 32 32
0 0 0 0 0 0 0 0 0 0 0 0 0 0 0 0 0 0 0 0 0 0 0 0 0 0 0 0 0 0 0 0 0 0 0 0 0 0 3 16 23 10 13 45 52 29 13 13 13

GEFSSGP_con_cape1000_024.txt.gz
Probability
0 0 0 0 3 6 13 3 0 0 0 0 0 6 0 0 3 0 0 0 0 0 90 100 100 100 100 100 100 97 97 87 90 97 90 94 97 100 100 100 100 100 100 100 100 100 100 100 100
0 0 0 0 0 0 0 0 0 0 0 0 0 0 0 10 10 0 0 0 0 6 90 100 100 100 100 100 100 100 100 94 94 94 94 77 77 90 100 100 100 100 100 94 94 94 94 94 94
0 0 0 0 0 0 0 0 0 0 0 0 0 0 0 6 16 0 0 0 0 6 52 100 100 100 100 100 100 100 100 100 100 100 97 77 61 68 68 87 94 90 84 84 81 68 61 68 71
0 0 0 0 0 0 0 0 0 0 0 0 0 0 0 0 19 3 0 0 0 0 55 100 100 100 100 100 100 100 100 100 100 100 94 84 65 55 58 61 61 61 58 48 52 48 48 55 48
0 0 0 0 0 0 0 0 0 0 0 0 0 0 0 6 13 0 0 0 0 0 55 100 100 100 100 100 100 100 100 100 100 100 100 97 94 87 74 74 68 58 48 23 16 13 16 23 19
0 0 0 0 0 0 0 0 0 0 0 0 0 0 0 3 6 0 0 0 0 3 55 100 100 100 100 100 100 100 100 100 100 100 100 100 100 100 100 97 97 90 84 74 71 71 58 52 52
0 0 0 0 0 0 0 0 0 0 0 0 0 0 0 3 3 3 0 0 0 0 35 100 100 100 100 100 100 100 100 100 100 100 100 100 100 100 100 100 100 100 100 100 100 100 100 97 97
0 0 0 0 0 0 0 0 0 0 0 0 0 0 0 0 3 0 0 0 0 0 6 81 94 100 100 100 100 100 100 100 100 100 100 100 100 100 100 100 100 100 100 100 100 100 100 100 100
0 0 0 0 0 0 0 0 0 0 0 0 0 3 0 0 0 3 3 0 0 0 0 19 58 71 97 100 100 100 100 100 100 100 100 100 100 100 100 100 100 100 100 100 100 100 100 100 100
0 0 0 0 0 0 0 0 0 3 10 10 6 3 3 3 0 3 16 29 0 0 0 3 16 42 61 87 97 100 100 100 100 100 100 100 100 100 100 100 100 100 100 100 100 100 100 100 100
0 0 0 0 0 0 0 0 0 0 13 6 10 3 6 0 0 3 16 39 26 6 0 0 10 19 35 26 39 94 100 100 100 100 100 100 100 97 100 94 100 100 100 100 100 100 100 90 90
0 0 0 0 0 0 0 0 0 13 16 10 6 3 0 0 0 0 3 32 39 19 10 0 3 6 16 10 19 68 94 100 100 100 100 97 97 97 87 77 81 100 100 100 100 100 94 90 84
0 0 0 0 0 0 0 0 0 3 32 19 3 0 3 0 0 6 6 13 35 42 19 6 3 23 23 32 55 61 74 97 100 100 100 97 94 90 87 81 71 77 81 87 84 77 74 74 71
0 0 0 0 0 0 0 0 0 3 39 45 13 0 3 6 6 6 10 6 10 19 19 16 26 55 68 84 94 97 100 100 100 100 100 97 97 87 90 55 45 39 45 32 45 48 48 48 48
0 0 0 0 0 0 0 0 0 0 35 45 19 16 19 23 19 6 10 6 10 10 10 19 29 48 68 94 100 100 100 97 97 100 97 97 97 84 65 42 35 35 26 23 16 13 13 10 13
0 0 0 0 0 0 0 0 0 0 19 32 19 26 23 13 13 6 3 3 6 6 13 13 23 42 65 74 94 100 100 100 100 97 97 97 97 87 58 35 26 26 13 6 3 3 3 3 3
0 0 0 0 0 0 0 0 0 0 3 10 16 23 16 10 6 0 0 3 0 0 0 10 13 29 48 65 81 87 94 97 97 100 97 97 94 71 39 23 13 6 3 0 3 0 0 0 0
0 0 0 0 0 0 0 0 6 0 3 6 6 6 3 3 0 0 0 0 0 0 0 3 10 16 32 58 61 61 65 74 68 90 71 61 48 52 19 6 3 0 0 0 0 0 0 0 0
0 0 0 0 0 0 0 3 6 3 6 6 6 3 3 0 0 0 0 0 0 0 0 6 6 10 23 29 45 35 35 29 55 58 42 32 16 10 3 0 0 0 0 0 0 0 0 0 0
0 0 0 0 0 0 3 13 19 13 3 0 0 0 0 0 0 0 0 0 0 0 0 3 6 6 10 16 23 16 10 10 10 35 19 10 3 0 0 0 0 0 0 0 0 0 0 0 0
0 0 0 0 0 0 0 3 6 6 3 3 3 0 0 0 0 0 0 0 0 0 0 3 0 0 0 3 3 3 0 0 3 3 3 0 0 0 0 0 0 0 0 0 0 0 0 0 0
0 0 0 0 0 0 0 0 6 6 6 3 3 0 0 0 0 0 0 0 0 0 0 0 0 0 0 0 0 3 3 0 0 0 3 0 0 0 0 0 0 0 0 0 0 0 0 0 0
0 0 0 0 0 0 0 0 3 0 6 3 3 3 0 0 0 0 0 0 0 0 0 0 0 0 0 0 0 0 0 0 0 0 0 0 0 0 0 0 0 0 0 0 0 0 0 0 0
0 0 0 0 0 0 0 0 0 0 0 0 0 0 0 0 0 0 0 0 0 0 0 0 0 0 0 0 0 0 0 0 0 0 3 0 0 0 0 0 0 0 0 0 0 0 0 0 0
0 0 0 0 0 0 0 0 0 0 0 0 0 0 0 0 0 0 0 0 0 0 0 0 0 0 0 0 0 0 0 0 0 0 0 0 0 0 0 0 0 0 0 0 0 0 0 0 0
0 0 0 0 0 0 0 0 0 0 0 0 0 0 0 0 0 0 0 0 0 0 0 0 0 0 0 0 0 0 0 0 0 0 0 0 0 0 0 0 0 0 0 0 0 0 0 0 0
0 0 0 0 0 0 0 0 0 0 0 0 0 0 0 0 0 0 0 0 0 0 0 0 0 0 0 0 0 0 0 0 0 0 0 0 0 0 0 0 0 0 0 0 0 0 0 0 0
0 0 0 0 0 0 0 0 0 0 0 0 0 0 0 0 0 0 0 0 0 0 0 0 0 0 0 0 0 0 0 0 0 0 0 0 0 0 0 0 0 0 0 0 0 0 0 0 0
0 0 0 0 0 0 0 0 0 0 0 0 0 0 0 0 0 0 0 0 0 0 0 0 0 0 0 0 0 0 0 0 0 0 0 0 0 0 0 0 0 0 0 0 0 0 0 0 0
0 0 0 0 0 0 0 0 0 0 0 0 0 0 0 0 0 0 0 0 0 0 0 0 0 0 0 0 0 0 0 0 0 0 0 0 0 0 0 0 0 0 0 0 0 0 0 0 0

GEFSSGP_con_cape1000_030.txt.gz
Probability
3 0 0 0 3 0 0 0 0 0 0 0 0 0 0 0 0 0 0 0 0 0 94 100 100 100 100 87 81 84 94 100 100 100 100 100 100 100 100 100 100 100 100 100 100 100 100 100 100
0 0 0 0 0 0 0 0 0 0 0 0 0 0 0 10 0 0 0 0 0 16 90 100 100 100 100 97 87 87 94 97 100 100 100 100 100 100 100 100 100 100 100 100 100 100 100 100 97
0 0 0 0 0 0 0 0 0 0 0 0 0 0 3 10 0 0 0 0 0 42 87 100 100 100 100 97 90 97 94 97 100 100 100 100 100 100 100 100 100 100 100 100 97 97 97 97 97
0 0 0 0 0 0 0 0 0 0 0 0 0 0 0 23 6 0 0 0 0 58 87 100 100 100 100 100 97 97 97 97 100 100 100 100 100 100 100 100 100 100 100 97 97 94 97 94 97
0 0 0 0 0 0 0 0 0 0 0 0 0 0 0 13 0 0 0 0 13 55 81 94 100 100 100 100 100 100 97 97 97 100 100 100 100 100 100 100 100 100 100 94 94 94 90 90 90
0 0 0 0 0 0 0 0 0 0 0 0 0 0 0 10 0 0 0 0 16 61 90 94 100 100 100 100 100 100 100 100 100 100 100 100 100 100 100 100 100 100 97 94 90 90 87 90 90
0 0 0 0 0 0 0 0 0 0 0 0 0 0 0 10 3 0 0 0 16 71 94 97 100 100 100 100 100 100 100 100 100 100 100 100 100 100 100 100 100 97 97 97 97 97 97 94 97
0 0 0 0 0 0 0 0 0 0 0 0 0 0 0 3 6 0 0 0 23 71 94 100 100 100 100 100 100 100 100 100 100 100 100 100 100 100 100 100 100 100 100 100 100 100 100 100 100
0 0 0 0 0 0 0 0 0 3 0 0 3 3 0 6 10 0 0 0 13 42 77 100 100 100 100 100 100 100 100 100 100 100 100 100 100 100 100 100 100 100 100 100 100 100 100 100 100
0 0 0 0 0 0 0 0 0 0 0 0 0 3 10 10 10 0 0 0 6 19 55 74 84 84 87 87 84 87 97 100 100 100 100 100 100 100 100 100 100 100 100 100 100 100 100 100 100
0 0 0 0 0 0 0 0 0 0 0 0 0 3 16 13 10 10 3 0 0 0 23 45 65 68 74 74 58 65 77 84 94 100 100 100 100 100 100 100 100 100 100 100 100 100 100 100 100
0 0 0 0 0 0 0 0 0 0 0 0 0 3 19 23 13 10 23 13 6 0 6 16 35 45 48 48 42 45 65 68 74 87 100 100 100 100 100 100 100 100 100 100 100 97 97 97 94
0 0 0 0 0 0 0 0 0 0 0 0 0 3 0 6 3 6 19 6 3 0 0 0 13 19 23 23 16 23 35 45 55 77 90 94 94 94 97 97 90 81 68 77 84 87 87 87 87
0 0 0 0 0 0 0 0 0 0 0 0 0 0 0 0 3 6 10 10 6 10 6 3 0 6 10 13 10 10 10 23 35 55 61 81 81 81 71 61 55 29 35 39 42 45 55 55 55
0 0 0 0 0 0 0 0 0 0 0 0 0 0 0 0 0 0 3 0 0 3 6 6 0 0 0 0 6 6 13 16 23 35 52 68 77 74 61 42 19 19 16 16 13 10 10 16 13
0 0 0 0 0 0 0 0 0 0 0 0 0 0 0 0 0 0 0 3 3 3 0 6 6 3 3 3 6 6 16 16 26 35 45 68 68 68 55 35 19 13 10 6 3 0 3 3 3
0 0 0 0 0 0 0 0 0 0 0 0 0 0 0 0 0 0 0 3 0 0 0 0 3 3 3 6 0 6 10 19 26 39 52 55 61 68 55 26 13 10 3 0 0 0 0 0 0
0 0 0 0 0 0 0 0 0 0 0 0 0 0 0 0 0 0 0 0 0 0 0 0 0 3 0 0 3 3 6 23 29 32 39 48 52 48 32 13 6 3 0 0 0 0 0 0 0
0 0 0 0 3 0 0 0 0 0 0 0 0 0 0 0 0 0 0 0 0 0 0 0 0 0 0 0 3 3 3 3 13 29 32 29 29 32 13 6 3 0 0 0 0 0 0 0 0
0 0 3 0 3 3 3 3 0 0 0 0 0 0 0 0 0 0 0 0 0 0 0 0 0 0 0 0 0 0 3 0 0 3 6 16 19 16 13 3 0 0 0 0 0 0 0 0 0
0 0 3 0 0 0 6 6 3 0 0 0 0 0 0 0 0 0 0 0 0 0 0 0 0 0 0 0 0 0 0 0 0 0 0 0 3 6 3 0 0 0 0 0 0 0 0 0 0
0 0 0 0 0 0 0 0 6 3 0 0 0 0 0 0 0 0 0 0 0 0 0 0 0 0 0 0 0 0 0 0 0 0 0 0 0 0 0 0 0 0 0 0 0 0 0 0 0
0 0 0 0 0 0 0 0 0 0 3 0 0 0 0 0 0 0 0 0 0 0 0 0 0 0 0 0 0 0 0 0 0 0 0 0 0 0 0 0 0 0 0 0 0 0 0 0 0
0 0 0 0 0 0 0 0 0 0 0 0 0 0 0 0 0 0 0 0 0 0 0 0 0 0 0 0 0 0 0 0 0 0 0 0 0 0 0 0 0 0 0 0 0 0 0 0 0
0 0 0 0 0 0 0 0 0 0 0 0 0 0 0 0 0 0 0 0 0 0 0 0 0 0 0 0 0 0 0 0 0 0 0 0 0 0 0 0 0 0 0 0 0 0 0 0 0
0 0 0 0 0 0 0 0 0 0 0 0 0 0 0 0 0 0 0 0 0 0 0 0 0 0 0 0 0 0 0 0 0 0 0 0 0 0 0 0 0 0 0 0 0 0 0 0 0
0 0 0 0 0 0 0 0 0 0 0 0 0 0 0 0 0 0 0 0 0 0 0 0 0 0 0 0 0 0 0 0 0 0 0 0 0 0 0 0 0 0 0 0 0 0 0 0 0
0 0 0 0 0 0 0 0 0 0 0 0 0 0 0 0 0 0 0 0 0 0 0 0 0 0 0 0 0 0 0 0 0 0 0 0 0 0 0 0 0 0 0 0 0 0 0 0 0
0 0 0 0 0 0 0 0 0 0 0 0 0 0 0 0 0 0 0 0 0 0 0 0 0 0 0 0 0 0 0 0 0 0 0 0 0 0 0 0 0 0 0 0 0 0 0 0 0
0 0 0 0 0 0 0 0 0 0 0 0 0 0 0 0 0 0 0 0 0 0 0 0 0 0 0 0 0 0 0 0 0 0 0 0 0 0 0 0 0 0 0 0 0 0 0 0 0

GEFSSGP_con_cape1000_036.txt.gz
Probability
3 0 0 10 81 58 3 0 0 0 0 0 0 0 0 0 0 23 52 13 6 55 97 94 100 100 100 100 100 100 100 100 100 100 100 100 100 100 100 100 100 100 100 100 100 100 97 100 97
0 0 0 16 29 0 0 0 0 0 0 0 0 0 0 6 23 35 19 13 6 48 97 87 100 100 100 100 100 100 100 100 100 100 100 100 100 100 100 100 100 100 100 100 100 100 100 87 81
0 0 0 0 0 0 0 0 0 0 0 0 0 0 3 13 23 13 13 10 6 58 97 100 100 100 100 100 97 97 100 100 100 100 100 100 100 100 100 100 100 100 100 97 97 97 84 90 71
0 0 0 0 0 0 0 0 0 0 0 0 0 0 19 55 16 3 13 0 10 68 84 100 100 100 100 100 100 97 97 97 97 100 100 97 100 100 100 100 100 100 100 97 97 97 84 87 77
0 0 0 0 0 0 0 0 0 0 0 0 0 3 42 74 26 13 3 0 26 48 65 100 100 100 100 100 100 97 97 97 100 100 100 97 100 100 100 100 100 100 100 97 97 97 97 97 97
0 0 0 0 0 0 0 0 0 0 0 0 0 6 74 84 55 29 13 3 3 32 65 100 100 100 100 100 100 100 97 97 100 100 100 100 100 100 100 100 100 100 100 100 97 97 97 97 100
0 0 0 0 0 0 0 0 0 0 0 0 0 16 84 97 68 48 35 13 3 10 48 100 100 100 100 100 100 100 100 100 100 100 100 100 100 100 100 100 100 100 100 100 100 97 97 97 100
0 0 0 0 0 0 0 0 0 0 0 19 13 23 87 100 97 74 65 35 10 19 48 100 100 100 100 97 100 100 100 100 100 100 100 100 97 97 100 100 100 100 100 100 100 97 97 100 100
0 0 0 0 0 0 0 0 0 0 6 26 45 71 87 100 100 94 87 77 77 74 87 94 100 100 100 100 97 100 100 100 100 100 100 100 94 48 100 100 100 100 100 100 100 100 100 100 100
0 0 0 0 0 0 0 0 0 0 13 29 55 74 87 97 100 100 94 94 87 90 90 100 100 100 100 100 100 100 100 100 100 97 97 100 94 94 74 97 100 100 100 100 100 100 100 100 100
0 0 0 0 0 0 0 0 3 3 19 55 68 81 81 94 100 100 94 97 84 87 97 97 97 100 100 100 100 100 100 100 100 100 100 100 100 97 94 94 100 100 100 100 100 100 100 100 94
0 0 0 0 0 0 0 0 3 10 32 55 84 81 84 100 100 100 100 94 90 94 97 97 94 94 97 94 87 84 84 87 90 94 100 100 100 100 100 100 100 100 100 100 100 97 97 97 100
0 0 0 0 0 0 0 0 3 6 16 39 65 77 84 87 94 94 94 90 84 87 84 84 84 87 87 90 94 71 74 68 61 74 74 90 94 90 97 100 100 97 87 100 100 97 100 100 97
0 0 0 0 0 0 0 0 0 0 10 29 39 39 42 58 55 58 55 61 68 61 71 68 68 61 81 74 77 68 58 77 61 65 65 68 81 90 90 94 97 94 94 90 94 87 94 94 97
0 0 0 0 0 0 0 0 0 0 13 16 26 16 23 23 29 29 35 42 45 52 55 58 39 45 65 74 74 65 52 45 55 65 68 65 68 77 84 87 87 90 94 97 97 94 97 100 87
0 0 0 0 0 0 0 0 0 10 16 13 13 13 10 3 10 10 10 32 35 35 45 35 32 45 61 68 71 58 58 55 48 48 52 45 42 55 71 77 81 81 87 94 90 84 84 74 87
0 0 0 3 0 0 0 19 3 10 6 6 6 6 6 6 3 3 3 10 13 23 16 26 29 35 52 61 68 55 61 61 58 48 39 35 32 32 48 61 68 65 71 77 74 65 71 58 65
0 0 0 6 16 19 29 19 3 3 3 3 3 6 6 3 0 0 0 0 10 13 6 16 13 26 29 29 48 65 61 61 58 58 39 23 16 10 23 42 42 45 55 65 61 45 55 48 48
0 0 0 26 16 19 26 13 10 0 3 3 3 3 0 0 0 0 0 0 0 3 10 10 16 16 16 23 19 35 35 32 26 19 13 13 13 16 16 23 35 35 45 48 19 19 16 29 16
0 3 19 55 35 19 23 16 10 3 3 3 6 0 0 0 0 0 0 0 0 3 3 3 3 3 3 13 23 26 29 29 16 13 3 3 3 13 10 26 35 39 48 29 29 23 10 3 3
0 0 10 42 65 26 23 16 6 3 3 0 0 0 3 3 0 3 0 0 0 0 0 0 6 6 6 6 0 6 16 16 10 6 10 3 0 3 13 16 23 35 39 42 55 45 13 3 0
0 0 6 39 48 35 23 6 16 0 0 0 3 0 0 3 3 0 0 0 0 0 0 0 0 0 0 0 3 0 0 0 0 3 0 0 3 0 0 6 13 16 29 35 32 19 29 13 0
0 0 16 29 13 3 0 0 16 6 0 0 0 0 0 0 0 0 0 0 0 0 0 0 0 0 0 0 0 0 0 0 0 0 0 0 0 0 0 3 3 10 19 19 29 42 45 48 13
3 6 16 6 0 0 0 0 10 13 3 0 0 0 0 0 0 0 0 0 0 0 0 0 0 0 0 0 0 0 0 0 0 0 0 0 0 0 0 3 3 3 3 6 19 26 29 61 42
0 3 0 0 0 0 0 0 19 13 3 0 0 0 0 0 0 0 0 0 0 0 0 0 0 0 0 0 0 0 0 0 0 0 0 0 0 0 0 0 0 0 3 3 3 10 23 32 45
0 0 0 0 0 0 0 0 23 0 0 0 0 0 0 0 0 0 0 0 0 0 0 0 0 0 0 0 0 0 0 0 0 0 0 0 0 0 0 0 0 0 0 0 0 3 3 6 29
0 0 0 0 0 0 0 0 6 3 0 0 0 0 0 0 0 0 0 0 0 0 0 0 0 0 0 0 0 0 0 0 0 0 0 0 0 0 0 0 0 0 0 0 0 0 0 3 3
0 0 0 0 0 0 0 0 0 0 0 0 0 0 0 0 0 0 0 0 0 0 0 0 0 0 0 0 0 0 0 0 0 0 0 0 0 0 0 0 0 0 0 0 0 0 0 0 3
0 0 0 0 0 0 0 0 0 0 0 0 0 0 0 0 0 0 0 0 0 0 0 0 0 0 0 0 0 0 0 0 0 0 0 0 0 0 0 0 0 0 0 0 0 0 0 0 0
0 0 0 0 0 0 0 0 0 0 0 0 0 0 0 0 0 0 0 0 0 0 0 0 0 0 0 0 0 0 0 0 0 0 0 0 0 0 0 0 0 0 0 0 0 0 0 0 0

GEFSSGP_con_cape1000_042.txt.gz
Probability
6 0 3 13 68 90 48 0 0 0 0 0 0 3 3 0 29 65 29 45 100 84 87 100 100 100 100 100 100 100 100 100 100 100 100 100 100 100 100 97 87 90 87 94 100 100 97 97 90
0 3 10 55 97 55 3 0 0 0 0 0 0 0 3 3 3 23 23 65 100 87 71 97 100 100 100 100 100 100 100 100 100 100 100 100 100 100 100 100 97 94 97 97 100 100 87 77 87
3 16 10 74 61 13 0 0 0 0 0 0 3 0 3 3 6 13 19 61 84 81 81 100 100 100 100 100 100 100 100 100 100 100 100 97 97 100 100 100 100 100 100 100 100 100 90 71 84
13 0 3 10 10 0 0 0 0 0 0 3 6 13 13 0 0 6 13 61 90 90 94 100 100 100 100 100 100 100 97 97 97 100 97 97 97 97 100 100 100 100 100 100 100 100 97 84 71
0 0 3 6 0 0 0 0 0 0 0 3 13 35 16 0 0 3 13 55 84 100 97 97 100 100 100 100 100 100 97 97 94 97 97 97 97 97 97 100 100 100 100 100 100 100 97 97 77
0 3 0 0 0 0 0 0 0 0 0 6 39 52 35 10 0 3 10 29 55 100 97 100 100 100 100 100 100 100 97 97 97 100 100 100 97 100 100 100 100 100 100 100 100 97 100 100 97
0 0 0 0 0 0 0 0 0 0 0 3 16 68 45 16 6 3 6 23 55 100 100 100 100 100 100 100 100 97 97 97 100 100 100 100 100 100 100 100 100 100 100 100 100 100 100 100 100
0 0 0 0 0 0 0 0 0 0 0 13 45 61 58 45 16 3 6 19 58 100 100 100 100 100 97 97 100 100 100 100 100 100 100 100 100 100 100 100 100 100 100 100 100 100 100 100 100
0 0 0 0 0 0 0 0 0 0 19 52 65 74 87 58 35 19 16 16 55 81 100 100 100 100 100 100 100 100 100 100 100 100 100 100 100 100 100 100 100 100 100 100 100 100 100 100 100
0 0 0 0 0 0 0 0 0 10 29 39 65 77 87 77 61 42 32 29 55 65 90 100 100 100 100 100 100 100 100 100 100 100 100 100 100 100 94 100 100 100 100 100 100 100 100 100 100
0 0 0 0 0 0 0 0 6 23 39 48 65 77 77 90 90 87 71 68 65 81 87 100 100 100 100 100 100 100 100 100 100 100 100 100 100 100 94 94 100 100 100 100 100 100 100 100 94
0 0 0 0 0 0 0 0 16 23 29 52 68 81 90 94 97 100 100 97 84 97 97 97 97 97 100 100 100 100 97 97 97 97 97 97 100 97 100 100 97 90 94 94 94 94 97 100 87
0 0 0 0 0 0 0 0 0 26 32 52 65 81 87 90 97 97 100 100 97 100 97 100 97 97 97 97 97 97 97 94 94 97 97 97 97 97 94 97 97 94 94 84 77 74 77 84 87
0 0 0 0 0 0 0 0 0 32 42 65 74 77 87 90 87 90 90 90 94 90 87 87 90 90 97 97 97 97 94 100 94 97 97 100 97 97 97 90 90 77 71 61 52 55 61 68 71
0 0 0 0 0 0 0 3 23 42 58 61 71 74 81 81 84 84 84 84 84 77 74 71 71 77 84 87 84 81 94 87 90 94 94 97 94 97 94 84 74 68 52 48 42 48 45 52 48
0 0 0 0 0 0 0 16 35 48 61 65 68 65 68 74 65 68 68 71 68 74 71 68 35 52 71 74 84 65 71 81 94 90 87 87 81 74 77 71 52 48 42 29 19 19 23 32 35
0 0 0 0 0 0 0 52 42 58 65 68 71 68 68 55 48 48 52 52 68 74 77 74 58 48 55 55 55 52 65 71 74 74 61 58 61 61 71 65 39 35 32 23 6 10 19 23 23
0 0 0 0 0 3 10 48 55 58 68 74 65 61 58 48 42 35 35 42 45 52 45 45 45 58 39 32 32 35 39 32 42 48 48 48 35 23 29 29 26 16 16 13 3 6 13 6 13
0 0 0 3 3 10 19 48 52 55 55 74 65 55 48 39 35 29 23 19 16 16 23 19 23 39 48 29 16 16 13 19 23 29 29 19 13 10 23 16 16 3 6 6 0 0 0 3 10
0 0 0 3 0 6 13 29 42 42 52 52 52 52 45 42 32 29 23 6 6 10 6 26 19 16 19 35 35 23 16 6 6 16 13 13 10 3 0 13 10 10 3 0 0 3 3 3 3
0 0 0 0 0 0 0 6 23 23 29 29 29 29 26 29 23 23 6 3 0 3 3 0 10 16 26 19 10 3 13 3 0 0 6 3 0 3 3 0 0 10 3 3 3 3 3 3 3
0 0 0 0 0 0 0 3 6 3 16 10 19 19 3 3 6 6 0 0 0 0 0 6 3 16 13 19 6 0 0 0 0 0 0 0 0 0 0 0 0 0 3 3 3 6 3 3 0
0 0 0 0 0 0 0 0 0 13 10 6 10 3 3 3 3 6 0 0 0 0 0 0 19 16 13 16 6 10 0 0 0 0 0 0 0 0 0 0 0 0 0 0 3 3 3 3 0
0 0 0 0 0 0 0 0 3 10 6 6 3 3 0 0 0 0 0 0 0 0 0 0 10 6 10 6 3 0 3 3 0 0 0 0 0 0 0 0 0 0 0 0 0 0 3 0 0
0 0 0 0 0 0 0 0 3 10 3 0 0 0 0 0 3 3 3 0 6 0 3 3 0 0 0 0 0 3 0 0 0 0 0 0 0 0 0 0 0 0 0 0 0 0 0 0 0
0 0 0 0 0 0 0 0 10 3 0 0 0 0 0 0 0 0 0 0 3 0 0 0 0 0 0 0 0 0 0 0 0 0 0 0 0 0 0 0 0 0 0 0 0 0 0 3 0
0 0 0 0 0 0 0 26 6 0 0 0 0 0 0 0 0 0 0 0 0 0 0 0 0 0 0 0 0 0 0 0 0 0 0 0 0 0 0 0 0 0 0 0 0 0 0 0 0
0 0 0 0 6 0 0 3 13 0 0 0 0 0 0 0 0 0 0 0 0 0 0 0 0 0 0 0 0 0 0 0 0 0 0 0 0 0 0 0 0 0 0 0 0 0 0 0 0
0 0 0 0 0 0 0 0 0 0 0 0 0 0 0 0 0 0 0 0 0 0 0 0 0 0 0 0 0 0 0 0 0 0 0 0 0 0 0 0 0 0 0 0 0 0 0 0 0
0 0 0 0 0 0 0 0 0 0 0 0 0 0 0 0 0 0 0 0 0 0 0 0 0 0 0 0 0 0 0 0 0 0 0 0 0 0 0 0 0 0 0 0 0 0 0 0 0

GEFSSGP_con_cape1000_048.txt.gz
Probability
23 3 0 0 0 3 16 10 0 0 0 0 3 6 23 45 61 55 52 61 77 100 100 100 100 100 100 100 100 100 100 100 100 100 100 100 100 100 100 100 100 100 100 100 100 100 100 100 100
3 0 0 0 10 13 10 3 0 0 0 0 0 3 3 39 84 87 58 68 81 100 100 100 100 100 100 100 100 100 100 100 100 100 100 100 100 100 100 97 97 100 100 100 100 100 97 97 100
0 0 0 0 10 16 13 0 0 0 0 0 0 0 0 19 71 81 65 65 74 94 100 100 100 100 100 100 100 100 100 100 100 100 100 100 100 100 100 100 100 100 100 100 100 100 97 94 97
0 0 0 0 3 3 16 10 0 0 0 0 0 0 0 6 52 81 61 45 68 87 97 100 100 100 100 100 100 100 100 100 100 100 100 100 100 100 100 100 100 100 100 100 100 100 90 94 97
0 0 0 0 0 0 0 3 6 0 3 0 0 0 0 23 81 77 45 42 68 90 100 100 100 100 100 100 100 100 100 100 100 100 100 100 100 100 100 100 100 100 100 100 100 100 97 97 94
0 0 0 0 0 0 0 3 6 13 13 13 3 3 3 45 74 77 68 61 81 90 100 100 100 100 100 100 100 100 100 100 100 100 100 100 100 100 100 100 100 100 100 100 100 100 100 97 97
0 0 0 0 0 0 0 3 13 19 35 29 16 6 0 19 55 84 87 74 77 90 100 100 100 100 100 100 100 100 100 100 100 100 100 100 100 100 100 100 100 100 100 100 100 100 100 100 100
0 0 0 0 0 0 3 13 29 35 42 39 35 23 6 10 55 77 87 77 87 97 100 100 100 100 100 100 100 100 100 100 100 100 100 100 100 100 100 100 100 100 100 100 100 100 100 100 100
0 0 0 0 0 0 0 23 35 42 45 52 48 32 26 32 55 84 84 87 81 90 90 94 97 97 97 100 100 100 100 100 100 100 100 100 100 100 100 100 100 100 100 100 100 100 100 100 100
0 0 0 0 0 0 10 10 32 48 48 58 55 55 52 58 68 71 87 97 100 87 87 84 87 94 94 100 100 100 100 100 100 100 100 100 100 100 100 100 100 100 100 100 100 100 97 100 100
0 0 0 0 0 3 16 26 26 35 55 55 65 68 71 68 71 81 87 87 87 81 84 84 87 87 94 94 94 90 94 94 97 97 97 97 94 94 94 90 87 84 97 100 100 97 94 87 90
0 0 0 0 0 0 13 29 42 48 52 58 65 68 65 68 61 68 68 61 68 65 74 77 81 77 77 68 71 74 84 81 87 87 84 84 77 74 61 52 58 48 45 58 71 71 68 68 71
0 0 0 0 0 0 19 42 55 55 61 61 61 68 71 71 65 58 58 45 48 45 45 42 52 52 52 52 48 58 61 71 65 58 58 68 65 55 42 35 26 26 35 32 39 35 35 35 42
0 0 0 0 0 3 29 35 42 42 61 65 58 58 65 68 58 55 35 26 26 23 29 29 23 16 23 26 19 26 23 23 26 35 42 39 35 32 29 26 19 19 26 26 23 23 26 29 26
0 0 0 0 0 0 16 39 42 45 48 52 65 65 55 39 42 48 32 26 16 16 10 13 6 6 6 10 13 16 10 13 10 13 19 23 23 23 23 23 19 16 13 6 16 19 19 16 13
0 0 0 0 0 0 19 35 42 42 52 52 58 52 42 39 35 39 32 16 13 3 0 3 6 6 3 3 6 6 6 0 3 6 13 10 10 6 6 10 6 3 6 3 3 0 0 0 0
0 0 0 0 0 0 6 26 35 23 32 48 48 35 35 29 23 16 23 13 6 3 3 3 3 0 0 0 0 0 0 0 3 3 3 3 3 0 0 0 0 0 0 3 3 3 3 0 0
0 0 0 0 0 3 3 10 19 26 32 35 52 39 45 35 16 16 10 6 3 3 3 3 3 0 0 0 0 0 0 0 0 0 3 0 0 0 0 0 0 0 0 0 0 0 0 0 0
0 0 0 0 0 0 0 6 10 16 23 23 19 23 26 23 19 16 10 10 3 3 3 0 3 0 0 0 0 0 0 0 0 0 0 0 0 0 0 0 0 0 0 0 0 0 0 0 0
0 0 0 0 3 3 3 3 6 10 10 13 16 19 19 10 13 13 10 6 3 3 0 0 0 0 0 0 0 0 0 0 0 0 0 0 0 0 0 0 0 0 0 0 0 0 0 0 0
0 0 0 0 0 3 3 0 0 3 6 10 13 3 10 10 10 10 10 3 0 0 0 0 0 0 0 0 0 0 0 0 0 0 0 0 0 0 0 0 0 0 0 0 0 0 0 0 0
0 0 0 0 0 0 0 0 0 0 0 6 13 3 3 10 3 6 6 3 0 0 0 0 0 0 0 0 0 0 0 0 0 0 0 0 0 0 0 0 0 0 0 0 0 0 0 0 0
0 0 0 0 0 0 0 0 0 0 0 0 0 3 6 6 3 0 0 0 0 0 0 0 0 0 0 0 0 0 0 0 0 0 0 0 0 0 0 0 0 0 0 0 0 0 0 0 0
0 0 0 0 0 0 0 0 0 0 0 0 0 0 0 0 0 0 0 0 0 0 0 0 0 0 0 0 0 0 0 0 0 0 0 0 0 0 0 0 0 0 0 0 0 0 0 0 0
0 0 0 0 0 0 0 0 0 0 0 0 0 0 0 0 0 0 0 0 0 0 0 0 0 0 0 0 0 0 0 0 0 0 0 0 0 0 0 0 0 0 0 0 0 0 0 0 0
0 0 0 0 0 0 0 0 0 0 0 0 0 0 0 0 0 0 0 0 0 0 0 0 0 0 0 0 0 0 0 0 0 0 0 0 0 0 0 0 0 0 0 0 0 0 0 0 0
0 0 0 0 0 0 0 0 0 0 0 0 0 0 0 0 0 0 0 0 0 0 0 0 0 0 0 0 0 0 0 0 0 0 0 0 0 0 0 0 0 0 0 0 0 0 0 0 0
0 0 0 0 0 0 0 0 0 0 0 0 0 0 0 0 0 0 0 0 0 0 0 0 0 0 0 0 0 0 0 0 0 0 0 0 0 0 0 0 0 0 0 0 0 0 0 0 0
0 0 0 0 0 0 0 0 0 0 0 0 0 0 0 0 0 0 0 0 0 0 0 0 0 0 0 0 0 0 0 0 0 0 0 0 0 0 0 0 0 0 0 0 0 0 0 0 0
0 0 0 0 0 0 0 0 0 0 0 0 0 0 0 0 0 0 0 0 0 0 0 0 0 0 0 0 0 0 0 0 0 0 0 0 0 0 0 0 0 0 0 0 0 0 0 0 0

GEFSSGP_con_cape1000_054.txt.gz
Probability
29 0 0 0 0 3 3 10 10 3 0 3 13 58 81 84 45 16 35 68 97 100 100 100 100 100 100 100 100 100 100 100 100 100 100 100 100 100 100 100 100 100 100 100 100 100 100 97 97
3 0 0 0 3 0 0 0 6 0 3 3 3 23 71 97 90 71 74 100 97 100 100 100 100 100 100 100 100 100 100 100 100 100 100 100 100 100 100 100 100 100 100 100 100 97 97 100 100
3 0 0 0 3 0 0 3 6 0 3 0 0 6 55 90 97 77 77 100 100 100 100 100 100 100 100 100 100 100 100 100 100 100 100 100 100 100 100 97 100 100 100 100 100 97 94 94 100
0 0 0 0 0 3 0 0 0 0 0 0 0 3 29 87 97 90 100 100 100 100 100 100 100 100 100 100 100 100 100 100 100 100 100 100 100 100 100 100 100 100 100 100 100 100 94 94 97
0 0 0 0 0 0 3 10 3 0 0 0 0 13 55 87 94 100 100 100 100 100 100 100 100 100 100 100 100 100 100 100 100 100 100 100 100 100 100 100 100 100 100 100 100 100 97 94 94
0 0 0 0 0 0 0 13 13 16 13 6 3 13 48 74 81 94 100 100 100 100 100 100 100 100 100 100 100 100 100 100 100 100 100 100 100 100 100 100 100 100 100 100 100 100 100 100 94
0 0 0 0 0 0 3 13 23 35 35 29 13 29 61 74 65 68 84 97 100 100 100 100 100 100 100 100 100 100 100 100 100 100 100 100 100 100 100 100 100 100 100 100 100 100 100 100 100
0 0 0 0 0 3 3 16 39 42 45 52 45 48 55 77 65 65 81 87 97 97 100 100 100 100 100 100 100 100 100 100 100 100 100 100 100 100 100 100 100 100 100 100 100 100 100 100 100
0 0 0 0 0 0 10 32 42 52 61 55 58 61 68 81 77 77 77 84 84 94 94 90 100 100 100 100 100 100 100 100 100 100 100 100 100 100 100 100 100 100 100 100 100 100 100 100 100
0 0 0 0 0 3 6 23 39 58 52 68 81 90 87 87 77 74 61 71 71 84 87 90 90 90 97 100 94 97 97 97 100 100 97 97 97 94 97 97 97 100 100 100 100 100 100 97 97
0 0 0 0 0 3 6 26 42 61 65 77 84 94 87 84 74 71 71 61 68 68 74 74 81 77 81 81 77 81 81 81 87 90 90 84 81 74 71 71 68 68 74 68 81 87 94 94 87
0 0 0 0 0 3 16 32 52 71 74 81 77 77 74 74 71 61 61 55 61 65 48 48 52 58 61 61 61 61 68 58 58 61 71 61 55 52 48 52 48 45 48 45 55 58 68 68 71
0 0 3 3 10 23 45 55 71 68 71 74 71 74 74 55 52 48 39 45 39 39 23 26 29 35 32 29 26 32 32 35 39 35 42 48 45 42 32 29 26 23 26 32 32 26 29 32 45
0 0 3 10 35 58 58 55 68 68 68 68 71 71 61 55 35 29 29 23 29 16 10 13 6 3 6 3 3 3 3 3 3 0 16 26 23 23 23 23 13 10 13 13 16 19 19 19 23
0 0 0 0 23 39 39 45 52 58 65 71 65 61 55 48 35 23 16 13 13 6 10 3 3 3 0 0 0 3 3 3 3 3 3 10 3 3 10 10 10 6 3 6 10 13 13 19 19
0 0 0 0 3 23 23 29 55 48 65 71 65 55 45 39 26 13 6 6 3 3 3 3 3 0 0 0 0 0 0 0 0 0 0 3 3 3 3 3 3 0 0 0 0 3 6 6 10
0 0 0 0 3 13 16 29 45 29 48 58 58 45 39 32 23 10 6 3 0 0 3 0 0 0 0 0 0 0 0 0 0 0 0 0 0 3 0 0 0 0 0 0 3 3 3 3 6
0 0 0 3 3 6 23 35 39 23 35 35 35 32 39 42 26 6 3 0 0 0 0 0 0 0 0 0 0 0 0 0 0 0 0 0 0 0 0 0 0 0 0 0 0 0 0 0 0
0 0 0 3 3 3 13 29 23 23 26 32 23 19 23 23 16 6 3 3 0 0 0 0 0 0 0 0 0 0 0 0 0 0 0 0 0 0 0 0 0 0 0 0 0 0 0 0 0
0 0 0 0 3 0 6 16 10 10 13 10 13 13 3 10 6 6 3 3 0 0 0 0 0 0 0 0 0 0 0 0 0 0 0 0 0 0 0 0 0 0 0 0 0 0 0 0 0
0 0 0 0 3 0 3 0 6 3 3 6 10 6 3 6 3 3 3 3 0 0 0 0 0 0 0 0 0 0 0 0 0 0 0 0 0 0 0 0 0 0 0 0 0 0 0 0 0
0 0 0 0 0 0 0 0 0 0 3 3 0 3 3 3 3 0 0 0 0 0 0 0 0 0 0 0 0 0 0 0 0 0 0 0 0 0 0 0 0 0 0 0 0 0 0 0 0
0 0 0 0 0 0 0 0 0 0 0 0 0 0 0 0 0 0 0 0 0 0 0 0 0 0 0 0 0 0 0 0 0 0 0 0 0 0 0 0 0 0 0 0 0 0 0 0 0
0 0 0 0 0 0 0 0 0 0 0 0 0 0 0 0 0 0 0 0 0 0 0 0 0 0 0 0 0 0 0 0 0 0 0 0 0 0 0 0 0 0 0 0 0 0 0 0 0
0 0 0 0 0 0 0 0 0 0 0 0 0 0 0 0 0 0 0 0 0 0 0 0 0 0 0 0 0 0 0 0 0 0 0 0 0 0 0 0 0 0 0 0 0 0 0 0 0
0 0 0 0 0 0 0 0 0 0 0 0 0 0 0 0 0 0 0 0 0 0 0 0 0 0 0 0 0 0 0 0 0 0 0 0 0 0 0 0 0 0 0 0 0 0 0 0 0
0 0 0 0 0 0 0 0 0 0 0 0 0 0 0 0 0 0 0 0 0 0 0 0 0 0 0 0 0 0 0 0 0 0 0 0 0 0 0 0 0 0 0 0 0 0 0 0 0
0 0 0 0 0 0 0 0 0 0 0 0 0 0 0 0 0 0 0 0 0 0 0 0 0 0 0 0 0 0 0 0 0 0 0 0 0 0 0 0 0 0 0 0 0 0 0 0 0
0 0 0 0 0 0 0 0 0 0 0 0 0 0 0 0 0 0 0 0 0 0 0 0 0 0 0 0 0 0 0 0 0 0 0 0 0 0 0 0 0 0 0 0 0 0 0 0 0
0 0 0 0 0 0 0 0 0 0 0 0 0 0 0 0 0 0 0 0 0 0 0 0 0 0 0 0 0 0 0 0 0 0 0 0 0 0 0 0 0 0 0 0 0 0 0 0 0

GEFSSGP_con_cape1000_060.txt.gz
Probability
45 13 3 13 61 61 3 0 10 16 26 32 45 61 68 84 71 84 90 65 61 84 97 100 100 100 100 100 100 100 100 100 100 100 100 100 100 100 100 100 100 100 100 100 100 94 100 97 97
35 3 10 26 52 0 0 0 3 10 10 13 16 26 39 61 71 87 97 84 74 84 97 97 100 100 100 100 100 100 100 100 100 100 100 100 100 100 100 100 100 100 100 100 90 94 94 97 94
10 3 19 45 19 3 3 0 10 0 6 6 13 35 55 71 81 94 97 84 71 94 100 100 100 100 100 100 100 100 100 100 100 100 100 100 100 100 100 100 100 100 100 97 94 97 94 94 97
10 13 42 19 6 6 3 10 19 13 6 6 13 45 84 100 97 100 100 71 68 97 97 100 100 100 100 100 100 100 100 100 100 100 100 100 100 100 100 100 100 100 100 97 97 100 94 94 97
6 16 6 6 0 3 10 19 29 19 16 23 16 45 87 100 100 100 100 74 81 87 97 100 100 100 100 100 100 100 100 100 100 100 100 100 100 100 100 100 100 100 100 100 100 100 97 94 94
6 6 3 0 0 10 26 45 39 35 26 29 35 65 94 100 100 100 97 87 81 81 94 100 100 100 100 100 100 100 100 100 100 100 100 100 100 100 100 100 100 100 100 100 100 100 100 97 94
10 0 0 0 3 6 32 55 58 58 45 52 52 74 90 100 100 100 100 94 84 81 90 100 100 100 100 100 100 100 100 100 100 100 100 100 100 100 100 100 100 100 100 100 100 100 100 100 97
3 0 0 0 0 6 45 58 77 71 74 77 74 84 84 100 100 100 100 100 94 94 90 97 94 97 94 97 100 100 100 100 100 100 100 100 100 100 100 100 100 100 100 100 100 100 100 100 97
3 0 0 0 0 13 39 52 74 84 90 97 100 100 97 100 100 100 100 100 97 97 94 90 87 97 97 97 97 100 100 97 94 94 94 97 100 100 100 97 100 100 100 100 100 100 97 97 97
0 0 0 0 3 13 35 52 71 84 94 94 100 100 100 97 97 94 90 87 90 90 87 94 94 97 87 74 100 100 97 94 90 94 87 84 94 94 77 87 90 90 94 97 94 94 94 97 94
0 0 0 0 3 13 32 55 68 77 84 94 97 97 97 97 90 84 71 81 74 74 87 87 84 90 90 90 87 94 94 97 87 84 68 81 77 74 71 77 77 71 74 81 84 90 90 94 100
0 0 0 10 19 16 26 65 68 84 94 94 94 97 100 94 94 84 84 87 84 84 84 84 94 97 90 84 81 77 74 68 58 61 61 58 68 68 68 71 68 65 68 71 68 81 77 77 84
0 0 10 16 32 29 45 71 81 94 94 94 94 94 100 97 94 90 97 97 90 84 87 87 87 90 84 77 71 65 61 52 48 52 48 45 48 52 42 48 48 55 52 55 55 65 65 74 68
0 3 26 45 52 61 84 87 94 97 94 94 94 97 97 94 90 97 97 94 94 94 94 87 77 77 74 74 68 52 32 45 29 29 19 29 29 42 35 42 45 39 32 35 39 42 48 55 61
10 10 39 48 68 74 81 87 100 97 97 97 97 97 94 90 90 90 97 90 87 84 84 74 71 68 61 52 39 23 16 16 6 6 13 13 16 19 23 19 19 19 23 23 19 23 23 29 35
3 3 3 45 77 84 77 65 100 97 100 97 97 97 94 90 90 94 87 81 77 71 58 48 32 45 45 35 26 3 3 6 3 3 3 10 10 10 10 6 6 10 10 10 10 13 16 16 26
3 0 0 32 55 68 74 74 97 97 94 87 87 90 87 81 81 81 71 68 65 52 45 35 32 29 13 13 6 3 3 3 0 0 0 3 3 3 6 3 6 10 10 10 10 10 10 10 16
0 0 0 10 26 42 48 74 97 97 81 77 68 68 68 61 65 61 58 52 45 35 32 29 32 19 10 3 6 3 3 0 0 0 0 0 0 0 0 0 3 0 3 3 3 3 3 3 3
0 0 0 10 19 26 42 55 84 77 74 65 55 52 52 52 45 42 32 29 32 32 29 19 6 13 10 0 0 0 0 0 0 0 0 0 0 0 0 0 0 0 0 0 0 3 3 3 3
0 0 0 19 35 23 35 58 65 65 61 65 52 35 39 32 23 26 29 23 26 29 35 29 23 13 16 10 10 6 3 0 0 0 0 0 0 0 0 0 0 0 0 0 0 0 0 0 0
0 0 0 3 23 23 26 35 48 52 42 39 39 29 29 23 23 26 29 32 35 32 32 23 23 19 19 13 13 3 6 3 0 0 0 0 0 0 0 0 0 0 0 0 0 0 0 0 0
0 0 0 0 10 10 3 0 32 39 35 32 29 35 23 26 23 26 42 45 42 42 35 35 35 39 32 23 16 13 10 3 3 3 0 0 0 0 0 0 0 0 0 0 0 0 0 0 0
0 0 0 0 0 0 0 0 0 10 13 29 29 26 16 16 16 32 42 48 45 39 39 35 42 42 39 26 26 16 6 3 3 3 0 0 0 0 0 0 0 0 0 0 0 0 0 0 0
0 0 0 0 0 0 0 0 0 0 0 6 13 23 16 16 23 39 42 45 48 45 39 32 45 48 29 23 13 13 6 6 6 0 0 0 0 0 0 0 0 0 0 0 0 0 0 0 0
0 0 0 0 0 0 0 0 0 0 0 0 0 10 16 16 16 26 42 52 45 45 39 35 29 26 13 6 3 3 3 3 0 0 0 0 0 0 0 0 0 0 0 0 0 0 0 0 0
0 0 0 0 0 0 0 0 0 0 0 0 0 0 0 3 6 13 26 35 39 32 19 13 10 10 10 3 3 0 0 0 0 0 0 0 0 0 0 0 0 0 0 0 0 0 0 0 0
0 0 0 0 0 0 0 0 0 0 0 0 0 0 0 0 6 10 23 23 16 13 10 10 10 10 6 0 0 0 0 0 0 0 0 0 0 0 0 0 0 0 0 0 0 0 0 0 0
0 0 0 0 0 0 0 0 0 0 0 0 0 0 3 3 0 0 6 6 6 3 10 10 6 0 0 0 0 0 0 0 0 0 0 0 0 0 0 0 0 0 0 0 0 0 0 0 0
3 3 0 0 0 0 0 0 0 0 0 0 0 0 0 0 0 0 0 3 3 3 0 0 0 0 0 0 0 0 0 0 0 0 0 0 0 0 0 0 0 0 0 0 0 0 0 0 0
0 0 0 0 0 0 0 0 0 0 0 0 0 0 0 0 0 0 0 0 0 0 0 0 0 0 0 0 0 0 0 0 0 0 0 0 0 0 0 0 0 0 0 0 0 0 0 0 0

GEFSSGP_con_cape1000_066.txt.gz
Probability
61 45 58 65 77 71 35 6 0 3 0 6 10 35 55 65 71 45 23 81 100 97 100 100 100 100 100 100 100 100 100 100 100 100 100 100 100 100 100 100 94 90 87 81 87 77 87 94 84
32 45 58 65 71 61 6 0 3 0 0 6 16 29 42 42 39 32 42 90 94 94 100 100 100 100 100 100 100 100 100 100 100 100 100 100 100 100 100 97 97 100 90 94 84 87 84 97 84
35 52 55 68 68 19 0 0 0 0 0 3 29 65 61 52 35 58 39 74 90 100 100 100 100 100 100 100 100 100 100 100 100 100 100 100 100 100 100 100 100 100 100 100 94 84 87 94 97
48 55 48 42 23 0 0 0 0 0 0 6 32 84 84 74 61 32 23 74 97 100 100 100 100 100 100 100 100 100 100 100 100 100 100 100 100 100 100 100 100 100 100 94 94 97 90 87 90
58 52 48 39 3 0 0 0 6 3 0 13 48 90 87 81 52 29 32 77 94 100 100 100 100 100 100 100 100 100 100 100 100 100 100 100 100 100 100 100 100 100 100 100 94 97 97 94 94
29 19 10 0 0 0 0 3 13 3 6 19 71 90 90 77 52 35 39 68 90 100 100 100 100 100 100 100 100 100 100 100 100 100 100 100 100 100 100 100 100 100 100 100 100 100 100 97 97
13 6 0 0 0 0 0 3 13 19 13 16 65 90 90 84 65 65 55 68 94 100 100 100 100 100 100 100 100 100 100 100 100 100 100 97 97 97 100 100 100 100 100 100 100 97 100 100 100
6 3 0 0 0 0 0 3 16 39 23 48 65 90 97 100 90 71 68 84 97 100 100 100 100 100 100 100 100 100 100 100 100 97 94 94 90 94 97 97 97 100 100 100 100 100 97 100 97
3 3 0 0 0 3 6 13 29 45 61 68 81 97 100 100 97 94 90 97 97 97 97 100 100 97 100 100 100 100 100 100 94 94 90 90 90 87 87 87 90 84 90 94 97 97 100 97 97
0 0 0 0 0 6 16 19 32 48 58 68 87 97 100 100 100 100 100 100 97 97 97 100 97 94 94 94 97 97 90 94 94 90 81 81 87 77 77 74 65 68 71 81 84 90 94 97 94
0 0 0 0 0 6 10 13 29 32 52 58 77 87 100 97 100 97 97 97 97 97 100 94 97 94 94 94 94 90 87 77 74 81 71 71 71 77 71 68 65 61 68 68 68 74 74 81 90
0 0 0 0 0 0 0 6 16 39 52 61 71 81 94 94 90 94 94 94 94 97 100 97 97 94 90 84 84 81 77 65 58 52 45 45 52 65 71 74 65 55 55 58 55 55 61 61 61
0 0 0 0 0 0 3 10 29 55 55 58 71 81 90 94 97 97 100 100 100 100 94 97 94 94 87 87 81 65 65 48 48 52 35 42 42 45 45 61 71 48 45 52 39 39 35 45 52
0 0 0 0 0 0 6 16 29 55 58 68 77 87 97 90 90 100 100 100 97 97 97 94 84 84 81 81 77 68 42 55 39 32 29 29 29 35 32 32 58 45 45 42 39 32 39 32 35
0 0 0 0 0 3 0 23 32 45 65 74 87 97 97 97 100 100 97 97 94 94 94 90 84 74 68 65 61 52 29 19 19 19 23 23 19 19 26 29 35 32 29 26 32 13 19 13 13
0 0 0 0 0 0 3 16 32 39 61 90 100 100 100 100 97 97 94 94 94 94 97 90 58 65 65 65 55 32 23 19 23 16 13 3 10 10 16 13 16 26 19 26 29 19 13 10 10
0 0 0 0 0 0 0 19 19 29 42 77 97 100 97 97 94 90 87 87 90 97 97 84 68 52 52 45 45 35 39 35 29 13 13 3 0 0 3 10 13 13 13 13 3 6 3 3 6
0 0 0 0 0 3 3 13 23 19 32 68 81 94 94 90 87 87 84 74 84 90 87 77 68 61 48 58 55 45 32 29 26 16 13 0 0 0 0 0 3 10 6 10 10 6 6 6 6
0 0 0 0 0 0 0 16 19 23 45 55 74 65 77 77 74 77 71 68 65 84 87 77 74 81 68 65 55 58 58 48 39 23 3 0 0 0 0 0 0 0 0 0 3 3 3 6 10
0 0 0 0 0 0 3 6 19 29 35 52 65 58 65 61 68 65 65 52 61 74 81 84 81 81 74 77 68 68 45 39 32 23 13 3 3 0 0 0 0 0 0 0 0 3 0 0 0
0 0 0 0 0 3 3 3 13 26 29 39 39 52 45 48 55 48 42 58 58 74 77 65 87 81 77 68 68 58 61 48 39 23 13 3 0 0 0 0 0 3 0 0 0 0 0 0 0
0 0 0 0 0 3 3 0 10 23 19 32 29 32 32 32 39 39 39 42 58 65 68 90 90 87 77 61 65 58 55 39 29 16 13 6 3 0 0 0 0 0 0 0 0 0 0 0 0
0 0 0 0 0 0 0 0 3 26 23 26 26 23 29 26 19 35 48 68 61 52 65 84 87 87 81 68 58 52 48 23 19 16 10 6 3 0 0 0 0 0 0 0 0 0 0 0 0
0 0 0 0 0 0 0 0 3 10 16 19 23 32 32 19 23 42 35 77 68 48 61 71 77 77 71 65 45 39 26 23 19 13 13 6 3 0 0 0 0 0 0 0 0 0 0 0 0
0 3 10 0 0 0 0 0 3 3 6 3 19 32 29 19 19 35 45 65 68 58 61 68 74 68 55 45 39 16 10 10 3 10 3 0 0 0 0 0 0 0 0 0 0 0 0 0 0
0 0 3 0 0 0 0 0 0 0 0 10 16 23 19 16 6 13 32 65 71 61 58 55 52 55 42 23 16 13 10 3 3 0 0 0 0 0 0 0 0 0 0 0 0 0 0 0 0
0 0 0 0 0 0 0 0 0 0 0 3 6 13 16 13 13 6 19 29 45 45 55 48 58 42 23 13 13 13 6 0 0 0 0 0 0 0 0 0 0 0 0 0 0 0 0 0 0
0 0 0 0 6 0 0 0 3 0 0 3 3 3 10 10 6 13 10 19 29 35 39 23 35 29 16 6 6 0 6 0 0 0 0 0 0 0 3 3 0 0 0 0 0 0 0 0 0
0 0 0 0 0 0 0 0 0 3 3 0 3 3 3 6 3 3 6 6 10 13 19 16 13 13 6 6 3 0 0 0 0 0 0 0 0 0 0 3 0 0 0 0 0 0 0 0 0
0 0 0 0 3 10 0 0 0 0 0 0 0 3 3 6 0 0 0 6 10 6 6 6 6 6 6 0 0 0 0 0 0 0 0 0 0 0 0 0 0 0 0 0 0 0 0 0 0

GEFSSGP_con_cape1000_072.txt.gz
Probability
87 74 45 29 29 16 10 0 0 0 3 19 16 23 19 23 10 42 68 77 94 100 100 100 100 100 100 100 100 100 100 100 100 100 100 100 100 100 100 100 100 97 97 97 97 97 97 100 97
58 29 23 26 32 3 0 3 0 6 13 13 13 23 48 84 97 84 81 84 100 100 100 100 100 100 100 100 100 100 100 100 100 100 100 100 100 100 100 100 100 100 97 90 90 94 94 94 90
16 19 19 23 19 0 0 0 0 0 13 23 35 52 45 90 94 81 77 84 97 100 100 100 100 100 100 100 100 100 100 100 100 100 100 100 100 100 100 100 100 100 100 97 84 90 94 94 97
13 10 23 23 16 13 3 0 0 0 3 29 39 55 45 74 84 77 71 74 97 100 100 100 100 100 100 100 100 100 100 100 100 100 100 100 100 100 100 100 97 97 100 97 90 87 90 90 94
6 10 19 16 6 6 3 0 0 0 10 19 26 39 35 81 74 77 68 71 87 100 100 100 100 100 100 100 100 100 100 100 100 100 100 100 100 100 100 100 97 97 100 100 100 94 94 90 87
6 3 13 6 0 0 0 0 0 6 16 16 19 39 35 77 81 81 65 65 81 100 100 100 100 100 100 100 100 100 100 100 100 100 100 100 100 100 100 100 100 100 100 100 100 100 97 90 90
6 3 3 3 0 0 0 0 10 6 6 16 19 39 39 61 77 90 81 81 81 100 100 100 100 100 100 100 100 100 100 100 100 100 100 100 100 100 100 100 100 100 100 100 100 100 100 100 100
3 3 3 0 3 0 3 10 3 6 16 19 39 45 35 48 71 87 81 87 87 100 100 100 100 100 100 100 100 100 100 100 100 100 94 84 87 87 94 100 94 94 94 97 94 97 100 100 100
3 0 0 0 0 10 10 16 10 13 16 29 35 45 48 58 68 87 87 81 74 74 94 94 97 97 100 100 100 100 100 100 90 87 81 65 55 58 68 81 84 77 77 84 84 94 94 94 97
0 0 0 0 0 6 19 16 16 23 19 16 35 39 48 58 68 87 90 90 81 81 81 87 90 90 94 97 90 84 74 68 52 42 42 39 32 42 52 55 58 55 55 61 74 74 74 74 71
0 0 0 0 6 16 13 13 13 16 16 19 26 35 42 48 58 74 87 84 87 84 87 84 87 87 81 71 74 68 58 42 29 23 19 13 16 16 16 13 26 29 32 29 42 39 42 48 48
0 0 0 3 3 10 6 13 23 19 16 23 29 32 48 58 61 61 74 74 84 87 84 81 74 68 65 58 52 48 35 19 16 10 6 6 3 10 10 13 13 13 13 16 13 23 29 26 26
0 0 0 0 6 10 6 10 23 13 19 26 29 39 48 55 48 48 55 68 77 84 81 74 58 52 45 42 32 19 10 10 10 10 6 0 0 3 6 3 6 6 6 6 6 10 13 13 16
0 3 3 3 3 3 6 10 13 16 23 26 26 29 48 61 52 55 55 68 74 77 71 65 58 42 29 26 16 10 13 10 10 3 3 0 0 0 0 0 0 0 0 0 3 3 3 6 6
0 0 0 3 3 3 6 16 23 13 19 23 26 23 29 39 52 61 68 71 68 68 52 52 52 42 16 10 6 10 6 0 0 0 3 0 0 0 0 0 0 0 0 0 0 3 3 3 3
0 0 0 0 6 6 3 13 13 10 13 19 26 39 32 42 55 58 71 68 71 55 48 45 45 29 16 3 3 0 0 0 0 0 0 0 0 0 0 0 0 0 0 0 0 0 3 3 0
0 0 0 0 3 6 6 13 16 13 19 26 32 32 42 42 45 61 74 74 55 42 39 32 29 19 10 3 3 0 0 0 0 0 0 0 0 0 0 0 0 0 0 0 0 0 0 0 0
0 0 0 0 0 3 10 6 10 13 16 26 26 32 35 45 48 58 68 48 42 35 29 23 19 13 6 0 0 0 0 0 0 0 0 0 0 0 0 0 0 0 0 0 0 0 0 0 0
0 0 0 0 0 0 6 10 10 10 16 23 26 35 35 45 45 52 55 39 35 32 26 23 19 10 0 0 0 0 0 0 0 0 0 0 0 0 0 0 0 0 0 0 0 0 0 0 0
0 0 0 0 0 0 6 6 6 13 13 16 23 32 26 26 42 42 39 29 35 26 23 16 6 3 0 0 0 0 0 0 0 0 0 0 0 0 0 0 0 0 0 0 0 0 0 0 0
0 0 0 0 0 0 0 3 6 6 10 10 23 26 26 19 32 35 29 26 29 26 19 19 6 3 0 0 0 0 0 0 0 0 0 0 0 0 0 0 0 0 0 0 0 0 0 0 0
0 0 0 0 0 0 0 0 0 3 6 10 13 19 29 29 32 23 19 13 26 23 16 6 3 0 0 0 0 0 0 0 0 0 0 0 0 0 0 0 0 0 0 0 0 0 0 0 0
0 0 0 0 0 0 0 0 0 0 10 10 3 6 16 26 26 19 23 6 13 16 13 3 3 3 0 0 0 0 0 0 0 0 0 0 0 0 0 0 0 0 0 0 0 0 0 0 0
0 0 0 0 0 0 0 0 0 3 3 0 0 6 10 19 26 23 16 10 6 19 16 6 3 3 3 3 0 0 0 0 0 0 0 0 0 0 0 0 0 0 0 0 0 0 0 0 0
0 0 0 0 0 0 0 0 0 0 0 3 0 0 6 13 23 13 19 6 6 16 16 10 6 3 3 3 3 0 0 0 0 0 0 0 0 0 0 0 0 0 0 0 0 0 0 0 0
0 0 0 0 0 0 0 0 0 0 0 3 0 0 6 6 10 13 10 3 6 6 10 10 10 6 3 3 3 0 0 0 0 0 0 0 0 0 0 0 0 0 0 0 0 0 0 0 0
0 0 0 0 0 0 0 0 0 0 0 0 0 0 3 3 6 6 6 3 3 13 3 13 13 6 6 6 0 0 0 0 0 0 0 0 0 0 0 0 0 0 0 0 0 0 0 0 0
0 0 0 0 0 0 0 0 0 0 0 3 0 0 0 3 3 3 0 3 10 6 6 10 13 6 3 3 3 3 0 0 0 0 0 0 0 0 0 0 0 0 0 0 0 0 0 0 0
0 0 0 0 0 0 0 0 0 0 0 0 0 0 0 0 0 0 3 3 6 6 13 10 6 3 3 3 3 0 0 0 0 0 0 0 0 0 0 0 0 0 0 0 0 0 0 0 0
0 0 0 0 0 0 0 0 0 0 0 0 0 0 0 0 0 0 0 3 3 10 13 13 3 3 3 3 0 0 0 0 0 0 0 0 0 0 0 0 0 0 0 0 0 0 0 0 0

GEFSSGP_con_cape1000_078.txt.gz
Probability
84 74 48 16 13 0 0 0 0 0 3 6 3 16 23 32 16 3 39 65 81 100 100 100 100 100 100 100 100 100 100 100 100 100 100 100 100 100 100 100 100 97 97 94 94 94 97 100 94
71 52 26 10 0 0 0 0 0 3 3 3 16 16 32 45 74 77 77 90 100 100 100 100 100 100 100 100 100 100 100 100 100 100 100 100 100 100 100 94 94 94 87 90 94 94 87 90 94
42 19 10 3 0 0 0 0 0 6 6 10 19 19 42 65 84 77 90 97 100 100 100 100 100 100 100 100 100 100 100 100 100 100 100 100 100 100 100 100 97 94 84 87 94 87 90 90 90
16 3 0 0 0 0 0 0 6 6 6 6 16 19 45 65 87 87 97 97 100 100 100 100 100 100 100 100 100 100 100 100 100 100 100 100 100 100 100 97 97 97 94 94 94 94 90 90 90
0 0 0 0 0 0 0 3 6 13 23 23 23 26 52 74 90 97 100 100 100 100 100 100 100 100 100 100 100 100 100 100 100 100 100 100 100 100 100 97 94 97 94 94 94 94 94 94 94
0 0 0 0 0 0 0 0 6 10 10 16 19 26 55 68 84 97 97 100 100 100 100 100 100 100 100 100 100 100 100 100 100 100 100 100 100 100 100 100 100 100 100 100 100 94 90 90 94
3 0 0 0 0 0 0 3 3 10 13 16 19 35 55 65 71 77 84 94 97 100 100 100 100 100 100 100 100 100 100 100 100 100 100 100 100 100 100 100 100 97 97 97 100 97 97 100 100
0 0 0 0 0 3 3 6 10 13 13 19 29 42 48 45 65 77 81 84 90 97 97 97 100 100 100 100 100 100 100 100 100 100 97 94 94 94 90 90 94 90 94 94 94 94 90 97 100
0 0 0 0 0 3 6 10 0 10 19 16 29 32 52 61 81 77 71 81 87 97 97 94 97 97 97 97 97 97 100 100 90 87 87 71 55 55 68 77 71 68 65 84 87 90 90 87 87
0 0 0 0 0 3 13 16 3 19 13 19 32 45 71 77 74 71 61 65 81 87 94 97 87 97 97 94 84 71 58 52 35 39 35 29 26 32 39 45 65 68 71 65 71 71 74 65 58
0 0 0 0 3 0 10 10 10 23 10 13 26 55 61 61 61 52 42 39 52 68 87 94 90 94 87 74 61 52 35 35 26 19 19 19 16 13 16 16 16 16 23 23 35 35 35 35 52
0 0 0 0 0 16 13 10 13 13 13 23 32 48 55 58 48 35 35 35 42 52 65 71 74 68 65 55 55 35 23 13 10 6 6 3 3 6 6 10 13 13 13 16 16 19 19 23 26
0 0 0 0 3 10 10 6 13 13 13 23 35 48 48 42 42 39 42 35 39 35 48 52 45 45 39 35 35 23 10 3 3 0 0 0 0 0 0 0 0 3 3 3 6 10 19 16 19
0 0 0 0 3 0 3 3 6 13 10 29 29 32 35 29 45 45 52 48 35 29 35 45 32 35 29 16 16 10 0 0 0 0 0 0 0 0 0 0 0 0 0 0 0 3 3 6 10
0 0 0 0 3 0 0 3 6 6 13 23 23 32 35 35 35 45 45 52 35 29 29 29 26 19 6 3 0 0 0 0 0 0 0 0 0 0 0 0 0 0 0 0 0 0 0 3 3
0 0 0 0 3 0 0 0 3 6 10 26 26 29 29 26 26 32 42 45 26 29 19 19 32 10 0 0 0 0 0 0 0 0 0 0 0 0 0 0 0 0 0 0 0 0 0 0 0
0 0 0 0 3 3 3 0 0 6 10 19 19 16 23 19 19 26 39 32 23 16 13 16 6 0 0 0 0 0 0 0 0 0 0 0 0 0 0 0 0 0 0 0 0 0 0 0 0
0 0 0 0 3 3 3 3 3 10 13 16 16 19 19 26 23 26 29 23 10 6 6 6 6 3 0 0 0 0 0 0 0 0 0 0 0 0 0 0 0 0 0 0 0 0 0 0 0
0 0 0 0 0 3 3 3 3 3 10 13 19 16 13 19 19 19 16 19 13 6 6 6 3 0 0 0 0 0 0 0 0 0 0 0 0 0 0 0 0 0 0 0 0 0 0 0 0
0 0 0 0 0 3 3 3 0 6 10 10 10 16 13 19 23 26 13 16 10 6 6 3 0 0 0 0 0 0 0 0 0 0 0 0 0 0 0 0 0 0 0 0 0 0 0 0 0
0 0 0 0 0 0 0 0 0 6 10 6 10 16 19 23 23 23 16 10 6 6 3 0 0 0 0 0 0 0 0 0 0 0 0 0 0 0 0 0 0 0 0 0 0 0 0 0 0
0 0 0 0 0 0 0 0 0 0 3 10 13 16 19 23 19 23 13 10 6 6 3 0 0 0 0 0 0 0 0 0 0 0 0 0 0 0 0 0 0 0 0 0 0 0 0 0 0
0 0 0 0 0 0 0 0 0 0 3 3 6 10 13 23 19 19 19 6 10 6 3 0 0 0 0 0 0 0 0 0 0 0 0 0 0 0 0 0 0 0 0 0 0 0 0 0 0
0 0 0 0 0 0 0 0 0 0 0 3 3 6 10 13 23 16 19 10 6 3 3 0 0 0 0 0 0 0 0 0 0 0 0 0 0 0 0 0 0 0 0 0 0 0 0 0 0
0 0 0 0 0 0 0 0 0 0 0 0 3 3 6 13 19 13 16 10 3 3 3 0 0 0 0 0 0 0 0 0 0 0 0 0 0 0 0 0 0 0 0 0 0 0 0 0 0
0 0 0 0 0 0 0 0 0 0 0 0 0 3 3 10 10 16 16 10 3 3 3 0 0 0 0 0 0 0 0 0 0 0 0 0 0 0 0 0 0 0 0 0 0 0 0 0 0
0 0 0 0 0 0 0 0 0 0 0 0 0 0 6 6 6 10 13 10 3 3 3 0 0 0 0 0 0 0 0 0 0 0 0 0 0 0 0 0 0 0 0 0 0 0 0 0 0
0 0 0 0 0 0 0 0 0 0 0 0 0 0 3 3 3 10 13 16 13 3 3 0 0 0 0 0 0 0 0 0 0 0 0 0 0 0 0 0 0 0 0 0 0 0 0 0 0
0 0 0 0 0 0 0 0 0 0 0 0 0 0 0 0 3 6 10 10 3 0 0 0 0 0 0 0 0 0 0 0 0 0 0 0 0 0 0 0 0 0 0 0 0 0 0 0 0
0 0 0 0 0 0 0 0 0 0 0 0 0 0 0 0 0 3 3 3 0 0 0 0 0 0 0 3 0 0 0 0 0 0 0 0 0 0 0 0 0 0 0 0 0 0 0 0 0

GEFSSGP_con_cape1000_084.txt.gz
Probability
68 68 61 77 74 10 0 0 0 3 13 13 10 6 6 13 6 42 71 16 19 45 74 87 100 100 100 100 100 100 100 100 100 100 100 100 100 97 97 97 94 94 87 87 84 90 84 90 97
45 48 58 55 13 0 0 0 3 10 13 23 23 13 10 29 52 81 74 35 39 42 61 65 100 100 100 100 100 100 100 100 100 100 100 100 100 97 97 97 87 90 87 81 77 74 84 97 100
45 48 45 29 0 0 0 0 10 10 10 13 26 23 26 55 71 81 74 45 32 52 65 100 100 100 100 100 100 100 100 100 100 100 100 100 100 97 94 97 87 84 84 81 84 84 87 97 100
29 35 29 6 0 0 0 0 6 16 10 16 19 42 55 68 74 84 77 48 35 68 65 100 100 100 100 100 100 100 100 100 100 100 100 100 97 100 100 100 90 94 94 90 87 90 90 94 94
26 10 0 0 0 0 0 3 10 19 10 13 23 45 65 81 90 84 81 45 58 52 74 94 100 100 100 100 100 100 100 100 100 100 100 100 100 97 97 94 94 94 94 97 97 97 94 94 97
3 0 0 0 0 0 0 3 19 29 26 29 32 42 77 90 90 87 74 65 45 45 65 100 100 100 100 100 100 100 100 100 100 100 100 100 97 97 100 100 100 94 94 94 94 94 94 90 97
0 0 0 0 0 0 0 0 19 32 29 45 48 58 77 94 94 97 81 68 45 48 74 97 87 100 100 100 100 100 100 100 100 100 100 97 97 97 94 97 94 97 97 97 90 94 94 97 100
3 0 0 0 0 0 0 3 13 32 42 48 55 55 81 97 100 100 87 84 77 74 87 100 90 97 90 87 100 100 100 97 97 97 97 94 94 84 81 87 84 81 81 90 90 90 84 90 97
0 0 0 0 0 0 3 6 16 45 32 45 65 65 90 94 97 94 97 97 97 97 90 84 94 100 97 90 100 100 100 100 97 94 84 87 87 77 77 77 77 81 84 84 87 90 90 90 90
0 0 0 0 0 0 3 3 19 32 35 52 81 74 94 94 94 94 87 90 90 94 90 97 94 94 90 94 100 100 97 94 90 90 77 77 81 65 65 61 74 74 84 77 77 77 77 81 77
0 0 0 0 0 0 3 3 13 26 35 61 74 87 90 94 94 94 87 90 90 94 97 97 97 94 90 94 97 94 87 90 81 84 77 68 55 48 48 58 52 68 58 68 65 55 52 52 77
0 0 0 0 0 0 3 3 6 16 39 52 74 90 94 97 94 94 90 77 90 94 97 97 97 97 97 97 94 94 87 77 61 58 45 32 29 32 35 35 35 42 39 65 48 61 58 52 45
0 0 0 0 0 0 6 6 10 16 42 48 65 81 90 90 87 84 87 87 87 87 94 90 94 97 97 97 90 81 77 52 48 42 26 26 26 23 19 26 26 23 29 32 35 42 42 35 39
0 0 0 0 0 0 3 6 10 19 45 48 68 74 77 87 84 77 74 81 90 90 94 97 94 97 97 97 81 74 45 42 16 16 16 16 10 13 13 10 16 10 16 19 23 13 23 23 19
0 0 0 0 0 0 0 3 16 26 42 48 55 68 68 77 77 74 74 77 87 87 90 94 94 94 90 87 65 52 45 23 13 10 10 3 0 3 0 3 3 3 6 10 10 10 6 16 16
0 0 0 0 0 0 0 0 19 26 42 52 55 52 65 68 65 68 68 81 87 87 87 87 71 77 84 71 58 48 35 10 3 6 3 0 0 3 3 0 0 3 3 6 10 6 6 6 6
0 0 0 0 0 0 0 0 13 13 23 45 48 48 48 65 58 58 68 68 77 87 87 81 77 74 68 61 58 35 26 10 6 0 0 0 0 0 0 0 0 3 3 3 3 10 3 3 3
0 0 0 0 0 0 0 0 6 16 16 29 39 42 55 48 58 61 58 68 65 65 68 74 77 74 68 65 52 42 19 13 3 0 0 0 0 0 0 0 0 0 0 3 6 6 6 0 0
0 0 0 0 0 0 0 0 0 13 13 19 29 39 42 48 58 68 65 58 58 68 61 61 61 65 68 58 42 32 19 13 0 0 0 0 0 0 0 0 0 0 0 0 0 3 0 0 0
0 0 0 0 0 0 0 3 0 6 13 23 29 29 35 35 48 55 61 55 61 61 58 61 68 65 65 58 52 39 26 6 3 0 6 3 0 0 0 0 0 0 0 0 0 0 0 0 0
0 0 0 0 0 0 0 3 0 3 3 13 19 29 32 35 42 55 48 48 55 65 55 42 61 55 61 55 42 29 26 13 6 6 16 0 0 0 0 0 0 0 0 0 0 0 0 0 0
0 0 0 0 0 0 0 0 3 3 3 13 16 23 29 32 35 48 55 48 52 52 39 42 58 58 61 58 42 26 16 10 13 13 6 10 0 0 0 0 0 0 0 0 0 0 0 0 0
0 0 0 0 0 0 0 0 0 0 3 6 16 19 26 29 32 39 55 58 52 39 35 45 55 58 61 58 55 58 19 19 10 10 19 10 3 3 0 0 0 0 0 0 0 0 0 0 0
0 0 0 0 0 0 0 0 0 0 3 6 6 16 29 29 29 45 48 52 52 48 35 35 52 61 65 68 55 71 52 35 19 29 16 6 3 3 0 0 3 0 0 0 0 0 0 0 0
0 0 0 0 0 0 0 0 0 0 0 0 6 6 19 23 35 48 48 55 58 48 55 48 52 68 71 65 58 71 74 68 52 19 13 3 3 3 3 0 3 0 0 0 0 0 0 0 0
0 0 0 0 0 0 0 0 0 0 0 0 3 10 10 16 26 45 45 52 58 52 58 55 58 71 74 68 74 74 77 52 19 29 6 3 3 3 0 3 3 3 0 0 0 0 0 0 0
0 0 0 0 0 0 0 0 0 0 0 0 3 10 13 16 19 26 39 48 52 52 58 61 77 81 81 77 81 77 74 52 23 26 19 6 3 3 3 3 3 3 3 0 0 0 0 0 0
0 0 0 0 0 0 0 0 0 0 0 0 6 3 16 16 19 19 26 35 52 58 68 74 81 87 84 81 81 71 71 61 42 29 19 6 6 3 3 3 3 3 3 0 0 0 0 0 0
0 0 0 0 0 0 0 0 0 0 3 0 3 3 16 13 16 23 32 39 48 65 74 81 84 94 94 84 81 77 71 58 52 32 23 16 13 10 6 3 3 3 0 0 0 0 0 0 0
0 0 0 0 0 0 0 0 0 10 3 0 0 0 10 10 16 19 29 45 52 58 68 94 94 97 94 90 87 77 71 71 58 39 32 19 19 10 10 3 3 0 0 0 0 0 0 0 0

GEFSSGP_con_cape1000_090.txt.gz
Probability
81 52 74 94 97 81 10 0 0 0 0 3 0 3 13 32 19 19 16 52 87 87 94 100 100 100 100 100 100 100 100 100 100 100 100 97 97 100 97 97 97 100 100 90 94 94 94 100 100
32 77 81 74 71 29 0 0 0 13 10 0 0 6 29 48 48 16 32 77 84 77 84 97 100 100 100 100 100 100 100 100 100 100 100 97 97 97 97 97 97 90 87 87 90 90 94 94 97
23 52 39 55 58 3 0 3 6 10 13 0 6 23 55 61 58 68 68 81 74 74 97 100 100 100 100 100 100 100 100 100 100 100 100 100 97 97 94 90 87 87 84 87 84 84 84 97 94
39 39 39 13 0 0 0 0 6 10 6 13 13 42 71 74 74 81 61 68 71 74 84 100 100 100 100 100 100 100 100 100 100 100 97 97 100 94 94 94 94 94 90 90 94 94 87 87 90
29 23 13 6 0 0 0 0 0 0 6 6 23 61 90 81 84 87 65 71 81 77 71 94 100 100 100 100 100 100 100 100 100 100 97 97 100 94 94 87 90 90 90 87 87 94 87 94 94
10 6 0 0 0 0 0 0 3 6 13 10 35 61 94 84 84 87 65 77 84 81 71 100 100 100 100 100 100 100 100 100 100 100 97 97 100 90 87 84 84 87 90 94 94 84 84 87 90
0 0 0 0 0 0 0 0 3 10 19 10 32 68 87 84 84 81 81 74 74 87 71 77 87 100 100 100 100 100 100 100 100 97 94 94 90 90 90 87 84 77 71 84 87 84 90 84 87
0 0 0 0 0 0 0 0 0 6 23 32 48 65 87 84 81 84 81 81 90 97 87 87 81 87 90 97 100 100 100 97 94 97 97 94 87 81 81 87 77 74 71 71 74 77 87 87 97
0 0 0 0 0 0 0 0 3 6 13 29 55 74 84 84 77 84 74 81 94 97 97 81 81 84 87 90 100 100 100 97 97 97 94 87 90 87 81 81 74 68 74 77 74 84 84 84 90
0 0 0 0 0 0 0 0 3 6 13 35 65 74 77 84 94 87 84 94 94 94 94 97 100 100 97 97 100 100 97 97 97 90 90 94 87 74 71 68 68 61 68 71 74 77 77 87 90
0 0 0 0 0 0 0 0 0 3 23 48 68 84 87 87 94 90 87 84 90 87 90 90 97 97 94 97 97 100 97 94 90 90 87 87 71 65 68 74 71 74 71 68 81 81 71 87 87
0 0 0 0 0 0 0 0 0 3 29 48 68 84 87 94 97 87 84 84 87 90 90 87 94 94 97 97 97 94 94 87 84 74 68 55 58 58 58 61 58 61 71 65 65 74 71 65 68
0 0 0 0 0 0 0 0 0 10 29 42 55 65 74 84 87 74 84 84 90 87 90 94 94 97 97 97 94 90 90 74 61 61 45 39 48 42 32 42 52 42 52 58 58 68 68 55 58
0 0 0 0 0 0 0 0 0 13 26 26 48 58 68 77 81 74 77 81 84 90 90 90 97 97 97 94 94 90 65 65 45 35 23 26 29 32 32 35 45 32 35 32 52 39 42 52 48
0 0 0 0 0 0 0 0 0 13 26 26 35 48 55 68 68 71 81 87 84 87 94 90 94 97 97 94 90 77 61 39 39 26 19 10 19 16 23 23 19 23 23 19 29 19 23 23 26
0 0 0 0 0 0 0 0 10 16 19 19 39 42 58 68 71 65 77 84 90 94 90 87 90 97 97 97 84 68 42 45 26 19 23 16 13 6 13 10 10 13 13 13 29 16 16 19 16
0 0 0 0 0 0 0 0 13 23 26 23 32 48 52 68 71 77 77 81 81 87 90 90 90 97 87 87 74 68 58 58 29 29 19 13 3 0 3 6 10 13 10 10 10 23 16 16 13
0 0 0 0 0 0 0 0 16 16 23 26 29 48 61 71 71 74 74 68 77 77 87 87 84 87 90 81 74 81 55 42 35 35 26 16 3 3 0 0 3 3 6 13 13 10 16 10 19
0 0 0 0 0 0 0 0 6 10 10 19 39 52 58 58 61 68 68 68 71 81 87 87 84 84 84 84 74 68 58 45 42 29 23 13 6 3 0 0 3 3 3 3 3 6 6 6 6
0 0 0 0 0 0 0 0 0 19 13 13 39 48 48 58 61 68 68 71 68 84 87 87 87 87 81 81 68 65 71 65 55 42 42 16 10 6 0 3 6 3 3 3 3 3 3 3 3
0 0 0 0 0 0 0 3 3 6 10 10 19 42 45 42 55 58 58 58 58 84 84 71 84 81 74 61 58 55 68 65 52 52 45 29 13 6 6 3 3 3 6 3 3 3 3 0 0
0 0 0 0 0 0 0 0 16 13 16 10 16 32 39 45 48 58 55 58 61 71 77 84 77 71 74 61 58 52 48 52 65 71 74 48 29 10 10 3 3 3 0 3 0 0 0 3 3
0 0 0 0 0 0 0 0 6 3 10 6 3 13 29 35 45 52 52 58 55 71 68 61 61 68 74 58 65 68 58 71 71 68 74 65 42 16 6 3 3 6 3 0 0 0 0 0 0
0 0 0 0 0 0 0 0 13 10 6 3 6 10 29 29 42 52 61 65 71 65 65 58 61 65 77 61 68 71 71 77 71 68 71 68 58 35 13 3 6 6 3 0 0 0 0 0 0
0 0 6 3 10 3 0 0 6 6 3 3 10 13 29 23 39 52 58 68 71 68 61 58 58 68 65 61 71 74 81 81 84 77 77 71 45 32 48 3 29 3 3 0 0 0 0 0 0
0 0 3 0 0 0 0 0 3 3 6 6 6 13 23 29 32 52 58 65 68 61 55 58 71 68 68 74 77 87 87 84 81 87 81 71 68 42 42 39 32 6 6 0 3 0 0 0 0
0 0 0 0 0 0 0 3 0 3 0 0 6 10 29 35 35 48 65 65 61 58 61 65 77 74 77 77 81 94 94 90 84 84 68 55 65 23 39 39 26 23 10 3 3 0 0 0 0
0 0 0 0 3 0 0 0 0 3 3 0 6 13 23 39 48 58 68 58 58 55 68 74 71 77 90 81 81 74 90 97 97 77 65 61 61 45 35 32 29 26 19 13 10 6 10 3 0
0 0 0 0 6 3 0 0 0 6 10 10 10 16 19 29 39 52 65 58 58 65 68 77 87 84 87 81 87 90 90 90 97 81 77 68 68 61 48 39 35 26 23 16 13 10 13 6 6
0 0 3 13 26 16 3 6 0 3 6 10 10 23 32 35 42 52 58 65 61 65 61 74 81 84 84 94 90 90 90 90 90 77 77 81 71 65 61 52 45 26 19 19 19 13 10 10 3

GEFSSGP_con_cape1000_096.txt.gz
Probability
90 65 39 26 42 26 0 3 0 0 0 10 19 26 6 3 0 0 16 58 77 94 100 100 100 100 100 100 100 100 100 100 100 100 97 97 97 94 97 97 100 100 100 97 97 97 97 100 100
29 23 29 16 19 0 0 3 0 0 6 26 39 35 29 26 23 45 45 71 87 97 100 100 100 100 100 100 100 100 100 100 100 97 97 97 97 97 97 100 100 100 100 97 97 94 94 97 97
6 6 13 13 6 0 0 3 3 3 13 39 48 42 39 35 39 48 52 74 81 90 100 100 100 100 100 100 100 100 100 100 100 100 100 100 100 100 100 100 90 94 97 90 87 90 94 97 97
3 10 13 10 0 0 0 3 6 6 16 32 45 42 42 35 45 45 71 71 74 90 100 100 100 100 100 100 100 100 100 100 100 100 100 100 100 97 97 97 94 90 90 94 84 81 84 90 97
3 6 3 0 0 0 0 3 6 13 39 45 48 39 39 35 45 58 55 65 74 94 100 100 100 100 100 100 100 100 100 100 100 100 100 100 97 94 90 87 90 90 87 90 87 87 84 90 87
3 3 3 0 0 0 0 0 6 23 42 39 39 45 42 39 39 55 48 65 81 100 100 100 100 100 100 100 100 100 100 100 100 100 100 97 94 94 90 87 87 87 87 87 87 81 84 84 84
0 0 0 0 0 0 0 3 6 13 35 48 45 48 42 32 45 61 65 61 81 94 100 100 100 100 100 100 100 100 100 100 100 100 94 94 94 94 87 87 87 81 84 84 81 74 74 77 87
0 0 0 0 0 0 0 3 6 19 32 45 48 48 42 39 42 65 52 55 71 81 87 90 100 100 100 100 100 100 100 100 100 97 90 90 90 90 87 84 81 81 81 81 74 74 74 87 87
0 0 0 0 0 0 0 3 6 13 32 45 48 55 52 45 52 52 42 42 55 61 71 74 87 87 97 97 100 100 100 97 97 97 90 90 58 58 68 71 71 65 61 65 71 77 77 84 87
0 0 0 0 0 0 0 6 6 19 39 48 48 55 55 52 45 39 42 35 42 55 65 71 77 77 77 94 97 97 94 94 84 71 71 55 29 35 55 68 68 65 65 58 71 71 71 68 39
0 0 0 0 0 0 0 0 3 23 32 48 48 52 52 55 32 48 42 35 42 35 52 48 55 58 65 71 87 81 74 68 58 42 39 35 26 19 39 35 52 48 52 42 52 48 39 39 26
0 0 0 0 0 0 0 0 3 19 39 48 48 39 39 52 35 42 42 45 29 32 39 52 52 48 55 65 61 65 58 55 39 29 23 16 13 13 13 6 10 6 6 19 23 26 23 19 23
0 0 0 0 0 0 0 0 6 29 42 48 48 45 42 19 32 35 39 42 35 45 45 52 45 55 52 55 65 58 45 29 23 13 6 3 3 3 0 3 3 3 0 0 10 10 10 13 13
0 0 0 0 0 0 3 3 10 32 42 52 55 48 39 26 32 39 42 48 32 42 48 48 55 48 45 35 32 29 23 10 6 3 0 0 0 3 3 3 3 3 3 3 3 3 0 3 3
0 0 0 0 0 0 0 3 3 26 32 45 45 42 32 32 35 42 39 32 39 39 48 45 42 39 32 26 19 23 16 10 3 3 0 0 0 0 0 0 0 0 0 0 0 0 0 0 0
0 0 0 0 0 0 0 0 6 19 32 26 39 42 48 35 32 39 48 48 48 48 45 45 45 32 32 19 13 13 13 3 0 0 0 0 0 0 0 0 0 0 0 0 0 0 0 0 0
0 0 0 0 0 0 0 0 0 10 29 35 32 35 45 32 35 32 42 52 52 48 45 45 39 32 29 26 13 10 0 0 0 0 0 0 0 0 0 0 0 0 0 0 0 0 0 0 0
0 0 0 0 0 0 0 0 0 6 26 23 26 32 48 42 35 32 35 42 48 42 48 42 35 29 23 10 6 3 0 0 0 0 0 0 0 0 0 0 0 0 0 0 0 0 0 0 0
0 0 0 0 0 0 0 13 6 0 6 19 19 26 48 39 32 32 29 32 42 45 32 29 32 19 16 10 3 0 0 0 0 0 0 0 0 0 0 0 0 0 0 0 0 0 0 0 0
0 0 0 0 0 0 0 6 10 10 6 10 19 19 26 23 23 32 29 35 42 42 32 32 29 19 13 6 6 0 0 0 0 0 0 0 0 0 0 0 0 0 0 0 0 0 0 0 0
0 0 0 0 0 0 0 0 3 6 6 6 13 16 19 23 29 32 35 32 45 39 42 45 29 23 10 6 3 0 0 0 0 0 0 0 0 0 0 0 0 0 0 0 0 0 0 0 0
0 0 0 0 0 0 0 0 0 3 0 6 10 16 16 26 29 35 29 35 39 39 39 29 32 23 3 3 3 3 0 0 0 0 0 0 0 0 0 0 0 0 0 0 0 0 0 0 0
0 0 0 0 0 0 0 0 0 0 0 3 10 16 19 19 23 29 35 29 29 35 32 29 29 16 3 3 3 3 0 0 0 0 0 0 0 0 0 0 0 0 0 0 0 0 0 0 0
0 0 0 0 0 0 0 0 0 0 0 3 3 10 10 23 29 29 35 32 29 32 32 39 26 13 10 3 3 0 0 0 0 0 0 0 0 0 0 0 0 0 0 0 0 0 0 0 0
0 0 0 0 0 0 0 0 0 0 3 0 0 3 13 19 29 29 29 29 26 29 29 39 29 23 10 10 3 0 0 0 0 0 0 0 0 0 0 0 0 0 0 0 0 0 0 0 0
0 0 0 0 0 0 0 0 0 0 3 3 0 0 13 19 23 29 29 32 26 26 32 35 29 19 13 13 10 6 6 3 0 0 0 0 0 0 0 0 0 0 0 0 0 0 0 0 0
0 0 0 0 0 0 0 0 0 0 0 0 0 0 3 16 23 32 29 32 26 29 39 39 26 16 23 13 13 10 6 6 6 0 0 0 0 0 0 0 0 0 0 0 0 0 0 0 0
0 0 0 0 0 0 0 0 0 0 0 0 0 3 6 23 26 32 32 32 32 32 35 39 29 26 29 19 13 13 13 10 6 6 6 3 0 0 0 0 0 0 0 0 0 0 0 0 0
0 0 0 0 0 0 0 0 0 3 0 0 0 0 6 13 16 19 29 32 29 26 32 32 29 29 29 23 19 16 16 13 10 6 6 6 3 0 0 0 0 0 0 0 0 0 0 0 0
0 0 0 0 0 0 0 0 3 3 0 3 3 3 10 16 16 19 19 29 29 29 32 35 26 29 26 26 19 19 19 16 13 13 13 10 3 0 0 0 0 0 3 3 0 0 0 0 0

GEFSSGP_con_cape1000_102.txt.gz
Probability
65 74 58 19 6 0 0 0 0 0 0 0 6 6 0 0 0 0 3 23 45 90 100 100 100 100 100 100 100 100 100 100 100 100 100 100 100 97 97 100 100 97 94 94 97 97 97 100 97
55 48 16 3 0 0 0 0 0 0 3 10 16 26 10 23 16 23 29 42 68 97 97 100 100 100 100 100 100 100 100 100 97 100 100 97 100 100 100 100 100 100 100 84 90 90 100 97 97
10 10 6 0 0 0 0 0 3 6 19 39 35 32 23 39 42 42 48 65 81 97 100 100 100 100 100 100 100 100 100 100 100 100 97 97 97 97 97 97 97 94 97 94 87 87 90 94 97
3 3 3 3 0 0 0 0 13 19 26 35 39 35 32 42 45 42 65 68 90 100 100 100 100 100 100 100 100 100 100 100 100 100 100 97 97 90 87 90 90 90 90 84 84 84 90 90 94
0 3 3 0 0 0 0 3 13 19 23 39 39 39 45 42 55 61 71 81 90 97 97 100 100 100 100 100 100 100 100 100 100 100 100 97 94 94 87 87 87 90 84 77 77 77 81 87 94
0 0 0 0 0 0 0 6 13 19 42 39 42 32 35 42 61 68 71 74 94 97 97 100 100 100 100 100 100 100 100 100 100 100 97 90 90 90 87 87 87 84 81 81 74 71 74 84 87
0 0 0 0 0 0 0 0 6 29 45 52 42 42 42 45 58 61 65 74 87 90 97 97 97 100 100 100 100 100 100 100 100 100 94 90 90 90 90 90 84 84 77 71 68 68 68 81 87
0 0 0 0 0 0 0 0 16 32 39 52 55 48 39 48 48 58 65 65 81 81 87 97 97 100 100 100 100 100 100 100 100 97 94 87 87 84 84 90 87 81 81 74 65 65 74 84 90
0 0 0 0 0 0 3 3 19 23 42 39 39 55 48 52 55 58 58 65 68 71 74 81 90 97 100 100 100 100 100 94 94 87 90 87 61 61 71 77 77 71 68 65 65 65 65 74 81
0 0 0 0 0 0 3 3 13 35 48 48 52 65 52 52 61 58 48 52 55 68 71 71 84 90 94 94 97 97 94 90 81 77 68 48 29 29 55 52 61 61 52 48 48 55 58 45 42
0 0 0 0 0 0 3 3 13 32 48 45 48 65 58 58 58 55 52 45 52 55 65 61 77 87 81 87 94 87 77 68 61 52 39 19 23 26 35 35 35 35 39 39 42 42 32 32 23
0 0 0 0 0 0 0 0 10 16 19 39 55 61 65 61 61 48 42 29 39 45 52 58 68 81 74 74 81 71 55 48 45 35 26 6 6 10 10 10 19 16 19 19 26 23 23 19 23
0 0 0 0 0 0 0 3 6 16 26 45 55 55 58 61 55 45 35 32 26 32 39 42 48 58 52 55 71 55 48 45 35 23 19 6 6 3 3 3 3 3 3 6 6 13 13 13 6
0 0 0 0 0 0 3 6 10 19 39 48 55 52 48 48 45 39 29 26 23 16 29 42 48 42 42 45 45 32 26 26 23 10 6 0 0 0 0 0 0 0 0 0 0 0 3 3 6
0 0 0 0 3 3 3 6 13 23 39 48 39 45 48 42 32 35 23 13 16 19 16 29 29 32 32 35 29 26 26 16 16 3 0 0 0 0 0 0 0 0 0 0 0 0 0 0 0
0 0 0 0 0 3 0 0 10 16 32 32 39 39 35 42 35 32 26 13 13 13 13 19 29 19 13 19 23 16 13 10 6 0 0 0 0 0 0 0 0 0 0 0 0 0 0 0 0
0 0 0 0 0 0 0 0 10 13 19 23 29 26 23 16 26 19 26 29 16 16 16 16 13 16 13 16 16 10 10 3 0 0 0 0 0 0 0 0 0 0 0 0 0 0 0 0 0
0 0 0 0 0 0 0 0 6 10 19 16 26 19 16 13 16 16 23 26 19 10 10 10 13 6 10 6 3 0 0 0 0 0 0 0 0 0 0 0 0 0 0 0 0 0 0 0 0
0 0 0 0 0 0 0 0 3 13 16 19 16 16 16 13 6 13 13 16 16 6 6 6 6 6 6 3 6 0 0 0 0 0 0 0 0 0 0 0 0 0 0 0 0 0 0 0 0
0 0 0 0 0 0 0 0 0 6 16 16 16 16 13 13 10 10 10 19 16 13 13 13 6 6 6 6 3 0 0 0 0 0 0 0 0 0 0 0 0 0 0 0 0 0 0 0 0
0 0 0 0 0 0 0 0 0 0 3 10 16 16 10 13 16 13 13 19 23 10 6 10 6 6 6 3 0 0 0 0 0 0 0 0 0 0 0 0 0 0 0 0 0 0 0 0 0
0 0 0 0 0 0 0 0 0 0 3 3 10 10 13 13 13 10 13 13 19 19 6 6 6 10 6 3 0 0 0 0 0 0 0 0 0 0 0 0 0 0 0 0 0 0 0 0 0
0 0 0 0 0 0 0 0 0 0 0 0 6 10 10 10 10 13 13 6 6 19 16 13 10 10 6 3 3 0 0 0 0 0 0 0 0 0 0 0 0 0 0 0 0 0 0 0 0
0 0 0 0 0 0 0 0 0 0 0 0 0 6 10 6 10 13 10 6 6 6 10 13 10 13 6 3 3 0 0 0 0 0 0 0 0 0 0 0 0 0 0 0 0 0 0 0 0
0 0 0 0 0 0 0 0 0 0 0 0 0 0 3 0 3 10 10 10 6 10 16 13 10 10 6 3 3 3 0 0 0 0 0 0 0 0 0 0 0 0 0 0 0 0 0 0 0
0 0 0 0 0 0 0 0 0 0 0 0 0 0 0 0 3 10 10 10 10 6 10 13 10 10 10 6 3 0 0 0 0 0 0 0 0 0 0 0 0 0 0 0 0 0 0 0 0
0 0 0 0 0 0 0 0 0 0 0 0 0 0 0 0 0 3 6 10 10 6 19 16 10 10 10 10 6 3 0 0 0 0 0 0 0 0 0 0 0 0 0 0 0 0 0 0 0
0 0 0 0 0 0 0 0 0 0 0 0 0 0 0 0 3 0 3 10 10 10 13 16 13 13 10 10 6 6 6 0 0 0 0 0 0 0 0 0 0 0 0 0 0 0 0 0 0
0 0 0 0 0 0 0 0 0 0 0 0 0 0 0 0 0 0 3 6 13 13 13 16 19 16 13 10 6 6 6 3 0 0 0 0 0 0 0 0 0 0 0 0 0 0 0 0 0
0 0 0 0 0 0 0 0 0 0 0 0 0 3 3 3 3 6 6 6 16 13 13 13 16 13 10 10 6 6 6 6 3 3 3 3 3 0 0 0 0 0 0 0 0 0 0 0 0

GEFSSGP_con_cape1000_108.txt.gz
Probability
58 58 61 87 77 6 0 0 0 0 3 3 10 6 0 0 0 23 58 13 16 48 87 94 100 100 100 100 100 100 100 100 100 100 100 100 94 94 94 94 94 87 84 94 87 87 87 90 94
19 35 71 58 19 0 0 0 0 3 10 13 13 10 6 13 52 71 61 39 19 55 87 94 100 100 100 100 100 100 100 100 100 100 100 100 100 100 97 97 97 87 90 87 87 97 87 94 87
16 35 48 16 0 0 0 0 3 10 13 16 23 19 23 58 74 90 77 45 32 65 94 100 100 100 100 100 100 100 100 100 100 100 100 100 97 97 97 97 94 84 90 87 87 84 87 81 87
19 29 39 10 0 0 0 0 3 10 16 16 26 26 55 77 84 90 77 58 39 84 94 100 100 100 100 100 100 100 100 100 100 100 100 97 97 97 97 90 90 87 84 87 84 90 87 94 90
13 13 6 3 0 0 0 0 6 3 6 35 29 16 61 77 90 90 81 55 68 84 90 100 100 100 100 100 100 100 100 100 100 100 97 94 94 90 90 87 87 87 84 81 81 84 84 90 90
0 6 6 0 0 0 0 0 6 0 10 45 45 35 71 94 97 97 90 68 71 81 94 100 100 100 100 100 100 100 100 100 100 100 94 94 94 90 87 87 84 77 74 74 77 74 74 84 90
0 0 0 0 0 0 0 0 0 3 13 29 48 48 81 94 97 97 81 68 71 81 94 100 100 100 100 100 100 100 100 100 100 94 94 94 90 81 84 84 81 74 71 65 68 74 77 90 94
0 0 0 0 0 0 0 0 3 6 10 55 74 52 68 94 94 90 81 77 81 81 84 90 90 94 100 100 100 100 100 100 97 94 94 84 84 84 84 87 84 74 65 65 68 77 71 90 87
0 0 0 0 0 0 0 0 13 29 42 68 74 81 84 84 87 90 84 84 87 84 87 90 90 94 97 97 97 100 97 97 97 94 90 90 81 77 81 74 68 68 65 68 71 77 74 74 84
0 0 0 0 0 0 3 3 10 35 45 61 81 84 77 77 90 87 81 81 84 87 87 90 90 90 94 90 94 100 94 94 94 90 84 81 81 61 58 58 61 61 58 61 61 58 65 61 58
0 0 0 0 0 0 0 3 10 13 19 39 71 81 77 74 87 90 87 77 77 74 81 87 90 94 90 94 94 94 94 94 87 87 84 84 65 55 45 61 65 68 52 52 58 48 39 42 48
0 0 0 0 0 0 0 0 0 13 19 45 58 74 77 77 84 81 81 77 71 74 77 87 84 94 90 90 94 94 90 90 87 87 74 71 65 52 45 55 45 52 55 55 39 48 39 42 42
0 0 0 0 0 0 0 3 3 19 39 42 61 68 71 71 81 77 74 71 68 71 71 81 84 87 87 97 94 87 90 81 84 87 71 71 55 48 39 42 48 29 39 45 39 26 32 39 45
0 0 0 0 0 0 0 3 6 23 42 52 61 65 71 68 71 74 71 71 71 68 74 84 87 87 90 90 94 90 90 90 84 65 61 58 52 48 39 35 35 29 26 23 29 23 29 29 26
0 0 0 0 0 0 0 3 10 32 45 52 58 61 68 68 71 71 71 74 65 68 74 77 87 84 87 87 90 94 90 84 71 68 58 52 42 45 35 35 35 23 23 16 23 23 23 26 16
0 0 0 0 0 0 0 0 16 32 42 48 52 58 65 65 65 71 68 65 65 65 77 74 61 84 87 87 94 90 84 71 65 61 52 42 32 35 39 29 26 23 19 19 13 10 6 6 13
0 0 0 0 0 0 0 3 16 35 35 45 52 58 68 68 68 65 58 55 52 58 68 81 81 87 87 84 84 87 77 65 61 48 45 42 29 23 23 16 16 13 16 6 3 6 6 6 6
0 0 0 0 0 0 0 0 10 32 32 45 58 58 61 65 58 58 58 55 55 58 68 77 84 87 90 84 87 81 65 55 48 45 26 32 23 19 10 10 13 3 6 6 3 3 13 3 3
0 0 0 0 0 0 0 3 13 29 42 48 65 52 52 52 65 61 58 52 52 52 55 61 77 90 90 81 68 65 68 58 45 32 26 26 13 13 10 3 10 10 6 6 0 3 3 0 0
0 0 0 0 0 0 0 0 13 29 45 48 55 55 45 52 58 65 58 52 52 55 58 68 77 81 87 84 81 81 71 52 39 26 29 16 16 6 3 3 3 6 10 13 6 6 6 0 0
0 0 0 0 0 0 0 0 16 23 32 35 39 48 48 48 55 61 58 52 48 52 48 52 71 71 81 77 81 68 68 35 29 26 23 16 10 6 3 6 3 3 3 6 10 6 6 3 0
0 0 0 0 0 0 0 0 10 6 13 23 26 32 39 48 55 61 55 52 58 45 48 58 68 74 74 74 61 52 48 35 19 26 19 16 10 10 3 3 3 3 0 3 3 3 0 3 3
0 0 0 0 0 0 0 0 0 10 6 10 29 23 45 39 42 48 45 48 52 42 48 58 65 74 68 58 77 65 42 32 26 23 29 16 3 6 6 6 3 3 3 3 3 3 0 3 0
0 0 0 0 0 0 0 0 0 0 0 3 23 35 39 35 35 42 42 52 48 45 48 48 65 71 74 68 65 68 58 48 32 32 26 16 3 3 6 6 6 6 0 3 3 0 0 3 3
0 0 0 0 0 0 0 0 0 0 0 6 16 35 35 39 35 35 42 42 48 48 45 52 58 65 65 58 55 52 61 65 61 45 26 16 3 3 16 6 10 6 10 3 3 3 0 0 0
0 0 0 0 0 0 0 0 3 3 3 10 16 23 39 32 29 39 32 39 45 48 45 45 61 65 65 61 55 65 68 58 42 48 19 29 6 3 10 23 19 10 13 0 6 0 0 0 0
0 0 0 0 0 0 0 6 10 6 10 13 10 19 35 32 29 32 35 39 35 35 42 48 58 55 55 55 65 65 65 55 48 45 39 26 32 10 13 19 23 19 19 10 10 3 3 3 0
0 0 0 0 0 0 0 0 3 16 16 19 29 23 39 42 29 26 26 32 32 32 45 45 52 61 58 58 61 52 61 58 61 48 35 35 35 16 16 19 19 23 19 19 23 10 10 6 3
3 0 0 0 0 0 0 0 6 23 29 26 32 26 42 32 35 26 29 32 29 32 42 52 55 52 52 55 61 61 58 55 52 52 42 48 55 45 45 42 29 23 23 26 35 19 10 10 10
3 0 6 0 0 0 0 3 3 16 13 23 23 32 32 35 35 29 32 32 32 35 39 45 55 45 48 52 55 61 61 65 61 48 52 52 48 55 48 48 45 29 26 39 42 29 19 23 19

GEFSSGP_con_cape1000_114.txt.gz
Probability
42 29 71 94 87 77 13 0 0 0 0 0 0 0 0 6 13 29 39 48 74 77 90 94 97 97 97 100 100 100 100 100 100 100 100 100 97 97 97 97 97 97 94 94 94 97 97 90 94
13 45 65 68 58 10 0 0 0 0 0 0 0 0 10 19 16 35 48 71 84 71 81 94 97 100 100 100 100 100 100 100 100 100 100 97 97 97 94 90 94 100 100 94 94 100 90 90 90
10 29 29 42 29 6 0 0 3 3 0 0 3 3 10 29 42 68 74 74 90 71 81 100 97 100 100 100 100 100 100 100 100 100 97 97 97 97 97 94 97 94 97 97 97 97 94 90 90
19 29 29 32 10 0 0 0 0 0 0 3 6 6 45 48 52 81 81 81 90 77 90 100 100 100 100 100 100 100 100 100 100 97 97 97 97 97 97 97 97 97 94 90 94 100 100 90 90
16 13 16 6 0 0 0 0 0 0 0 3 6 39 71 74 84 81 81 87 90 87 94 100 100 100 100 100 100 100 100 100 97 97 97 97 94 94 94 94 90 90 97 94 90 90 87 81 87
6 6 0 3 0 0 0 0 0 0 0 3 3 45 87 97 87 81 84 87 90 90 94 100 100 100 100 100 100 100 100 97 97 97 97 94 94 90 90 90 90 87 84 84 77 81 87 81 87
3 3 0 0 0 0 0 0 0 0 0 0 6 48 87 87 100 84 90 90 87 90 94 94 97 97 97 100 100 100 100 97 97 97 94 94 90 90 90 90 90 84 81 77 77 77 84 81 87
3 0 0 0 0 0 0 0 0 0 0 3 6 55 97 90 90 84 81 87 87 87 87 87 90 90 97 100 100 100 97 97 97 94 94 94 90 90 90 90 90 74 81 68 71 77 74 71 74
0 0 0 0 0 0 0 0 0 0 3 13 26 74 94 87 90 84 81 87 87 87 81 81 87 90 87 94 97 100 97 97 97 94 94 94 90 90 90 90 87 77 74 71 58 61 68 74 71
0 0 0 0 0 0 0 0 0 0 6 26 52 87 94 90 90 84 77 87 77 77 74 84 90 90 87 84 87 90 94 97 94 94 94 94 94 90 87 77 81 71 71 65 65 68 65 61 61
0 0 0 0 0 0 0 0 0 0 23 42 48 81 87 87 90 90 84 84 74 71 74 81 84 90 87 87 87 84 87 90 90 94 94 94 87 84 74 77 74 77 74 71 74 68 58 65 74
0 0 0 0 0 0 0 0 0 3 16 35 42 65 77 81 81 84 81 84 74 71 77 74 84 90 90 84 90 87 87 90 90 94 87 87 84 74 77 77 71 77 74 77 71 81 74 65 61
0 0 0 0 0 0 0 0 0 13 19 26 45 58 65 71 77 77 77 71 71 74 71 74 84 87 84 81 84 81 84 84 81 87 90 87 87 74 74 77 77 65 71 71 74 77 58 55 55
0 0 0 0 0 0 0 0 0 13 19 29 42 58 71 71 77 77 77 71 68 68 71 71 81 77 77 77 81 81 74 81 77 87 87 74 77 74 71 71 74 68 71 65 71 65 61 61 68
0 0 0 0 0 0 0 0 10 16 23 23 39 55 71 71 74 77 74 71 68 65 68 71 74 77 77 77 77 74 77 71 74 74 71 71 71 65 61 65 68 65 58 48 58 45 52 61 55
0 0 0 0 0 0 0 3 6 13 23 32 45 52 55 74 68 77 71 74 71 65 71 71 68 68 81 81 81 71 81 71 74 71 68 65 65 55 61 65 61 58 48 48 58 52 48 55 65
0 0 0 0 0 0 0 3 0 3 23 29 58 55 61 71 74 71 71 74 71 71 71 65 68 74 81 81 87 81 77 77 74 71 68 58 48 42 52 68 61 39 39 42 26 52 52 48 55
0 0 0 0 0 0 0 6 3 3 13 39 45 52 55 61 68 71 74 71 74 68 68 71 65 74 77 77 77 77 77 71 65 65 61 55 45 39 42 55 35 29 35 39 39 48 42 45 42
0 0 0 0 0 0 0 0 6 10 23 39 52 61 61 65 71 71 68 68 68 65 68 65 74 74 71 71 74 77 71 68 65 61 55 48 39 39 39 35 29 32 35 32 32 26 26 32 35
0 0 0 0 0 0 0 0 6 13 13 35 48 58 55 58 71 68 68 61 65 65 61 65 74 74 74 84 84 87 74 68 61 58 48 45 32 35 16 42 29 19 32 29 29 26 29 26 29
0 0 0 0 0 0 0 0 10 10 13 29 32 52 45 48 68 68 68 61 61 71 65 61 81 84 77 77 74 84 81 68 61 58 58 39 29 23 23 23 23 26 32 29 26 29 26 23 19
0 0 0 0 0 0 0 0 10 10 16 23 29 48 48 48 55 65 65 61 61 68 65 74 77 81 74 81 81 81 61 55 61 68 71 55 32 23 23 10 16 23 29 35 29 26 26 26 19
0 0 0 0 0 0 0 0 13 10 6 6 23 35 55 55 58 61 61 61 71 74 74 74 77 77 74 74 81 81 77 68 71 68 68 61 39 35 23 16 16 19 26 23 19 29 26 23 32
0 0 0 0 0 0 0 0 10 3 6 13 16 32 52 55 55 58 61 71 58 68 77 71 71 74 74 74 81 84 77 77 71 68 55 65 61 48 29 19 26 26 26 23 13 16 13 23 26
0 0 0 0 0 0 0 0 6 0 3 6 19 29 42 42 55 71 58 58 61 68 71 71 71 77 81 74 84 84 81 81 74 65 61 61 42 45 61 16 45 32 39 13 13 16 26 23 19
0 0 3 0 0 0 0 3 3 3 3 6 19 26 42 42 48 65 58 55 58 58 65 68 71 74 74 74 81 87 81 77 65 81 58 55 68 48 68 68 55 45 35 13 19 19 23 19 16
0 0 0 0 0 0 0 3 6 10 0 3 10 19 29 42 45 55 52 55 61 65 65 68 77 74 71 71 81 84 81 74 68 74 65 61 71 55 65 61 58 55 42 32 48 45 32 32 19
0 0 0 0 0 0 0 0 0 10 6 6 16 19 26 35 39 48 48 55 45 65 71 74 77 81 71 71 71 74 74 71 68 71 61 68 71 61 65 61 55 61 52 45 48 55 39 32 35
0 0 0 0 0 0 0 0 0 10 19 13 13 26 23 35 39 52 55 42 42 48 61 68 65 81 74 71 71 71 65 65 65 65 61 68 71 71 58 68 68 61 58 55 52 48 48 29 39
0 0 3 3 6 6 0 0 6 16 10 13 19 29 42 52 52 65 58 55 42 48 58 65 71 68 71 68 68 65 68 65 55 55 58 61 68 68 71 55 61 61 48 55 52 52 39 39 29

GEFSSGP_con_cape1000_120.txt.gz
Probability
65 45 16 32 39 6 0 0 0 0 0 0 6 16 13 16 10 3 6 52 68 84 94 97 100 100 100 100 100 100 100 100 100 100 100 100 100 100 100 100 100 100 100 100 100 100 97 97 94
16 6 10 13 13 0 0 0 0 0 0 13 19 23 16 32 39 42 39 71 77 87 90 97 100 100 100 100 100 100 100 100 100 100 97 97 97 97 97 100 100 97 100 100 97 94 97 100 97
3 0 6 6 13 0 0 0 0 0 6 13 19 29 32 35 55 52 42 71 77 87 94 97 100 100 100 100 100 100 100 100 97 97 97 97 97 97 97 97 97 97 97 97 100 94 97 94 87
3 6 3 3 6 3 0 0 0 3 3 13 39 45 45 58 55 61 61 68 71 87 94 97 97 97 97 97 100 100 100 97 97 97 97 97 97 97 97 97 97 97 97 97 97 97 97 94 94
0 0 3 3 0 0 0 0 0 0 10 26 45 39 52 68 77 65 61 65 81 90 97 97 97 97 97 97 97 100 100 97 97 97 97 97 97 97 97 97 97 97 97 97 94 90 90 94 94
3 0 3 0 0 0 0 0 0 3 16 39 52 65 52 71 77 68 58 68 81 84 90 97 97 97 97 97 100 100 97 97 97 97 97 97 97 97 97 97 97 97 97 94 87 87 84 90 87
0 3 0 0 0 0 0 0 0 6 23 35 65 58 42 55 74 68 58 68 77 87 90 90 94 94 97 97 97 97 97 97 97 97 97 97 94 94 94 94 97 90 84 87 81 84 77 81 84
0 0 0 0 0 0 0 0 0 16 26 45 55 61 45 48 65 68 74 68 84 87 87 87 87 90 94 94 97 97 94 94 94 97 94 94 94 94 94 94 90 84 74 71 74 71 68 84 81
0 0 0 0 0 0 0 0 6 19 39 39 52 58 55 52 61 71 65 68 77 77 84 84 84 81 84 90 90 94 94 94 94 90 94 90 87 87 94 84 84 84 74 71 71 61 58 74 74
0 0 0 0 0 0 0 3 10 29 32 42 48 52 61 55 61 71 68 58 68 71 71 84 81 81 84 87 87 90 90 94 87 84 84 55 32 45 68 84 84 77 68 68 68 68 65 52 26
0 0 0 0 0 0 0 0 6 29 23 29 45 48 48 55 55 52 65 58 58 61 61 71 74 77 74 77 81 71 74 71 68 74 55 29 16 39 42 55 68 58 55 42 45 45 32 19 6
0 0 0 0 0 0 0 0 3 19 19 29 45 55 42 45 52 52 58 52 52 48 55 58 61 52 45 65 65 52 48 45 45 45 35 19 16 16 23 26 23 19 16 13 13 19 10 6 3
0 0 0 0 0 0 0 0 6 10 19 39 48 61 55 52 48 48 55 52 55 42 48 48 48 42 39 35 42 52 42 35 32 32 26 19 10 0 13 10 6 3 3 6 6 6 6 3 3
0 0 0 0 0 0 0 3 10 16 29 39 42 68 52 42 42 39 52 48 45 32 32 42 35 35 35 32 26 32 32 16 26 29 26 16 3 0 0 0 6 3 3 3 3 0 3 0 0
0 0 0 0 0 0 0 10 13 23 29 32 39 65 61 52 35 39 45 52 35 32 26 23 32 32 29 23 23 32 26 29 26 23 23 19 10 0 3 0 0 0 3 0 0 0 0 0 0
0 0 0 0 0 0 0 3 13 16 29 26 35 48 58 55 45 35 39 45 29 23 23 16 29 23 19 23 23 23 32 26 19 16 13 13 3 0 3 3 0 0 0 3 3 0 0 0 0
0 0 0 0 0 0 0 0 6 19 26 23 26 39 42 45 48 45 48 42 26 23 19 19 29 19 26 26 23 23 19 19 19 19 10 13 3 6 6 3 0 0 0 0 0 0 0 0 0
0 0 0 0 0 0 0 3 10 6 19 16 19 39 35 42 42 45 39 29 32 29 23 26 26 26 26 23 23 23 16 16 23 23 10 6 6 3 0 0 0 0 0 0 0 0 0 0 0
0 0 0 0 0 0 0 0 3 6 10 13 19 29 42 45 48 45 39 32 32 35 26 23 29 26 23 23 23 19 16 16 6 10 6 6 3 0 0 0 0 0 0 0 0 0 0 0 0
0 0 0 0 0 0 3 3 0 10 6 3 19 29 45 42 52 55 48 52 48 32 29 23 26 23 19 16 13 6 6 3 0 0 0 3 3 0 0 3 0 0 0 0 0 0 0 0 0
0 0 0 0 0 0 3 3 0 3 6 13 13 26 42 42 45 52 55 48 42 39 26 26 26 23 23 19 13 6 3 3 0 0 0 0 3 3 0 0 0 0 0 0 0 0 0 0 0
0 0 0 0 0 0 0 0 3 0 3 10 16 32 42 39 39 42 45 48 39 35 29 19 26 23 23 19 13 10 3 3 0 0 0 0 0 3 0 0 0 0 0 0 0 0 0 0 0
0 0 0 0 0 0 0 0 0 0 0 10 10 26 29 35 39 35 39 42 42 39 35 19 23 19 19 16 13 10 6 0 0 0 0 0 0 0 3 0 0 0 0 0 0 0 0 0 0
0 0 0 0 0 0 0 0 0 0 0 0 16 19 29 29 32 29 32 29 35 32 35 19 19 16 16 13 6 6 3 0 0 0 0 0 0 0 0 0 0 0 0 0 0 0 0 0 0
0 0 0 0 0 0 0 0 0 0 0 0 16 13 23 26 26 26 26 32 32 29 35 26 23 26 19 13 10 6 6 0 0 0 0 0 0 0 0 0 0 0 0 0 0 0 0 0 0
0 0 0 0 0 0 0 0 0 0 0 0 6 16 26 32 32 26 26 35 29 26 32 29 23 16 13 13 10 6 6 3 3 0 0 0 0 0 0 0 0 3 0 0 0 0 0 0 0
0 0 0 0 0 0 0 0 0 0 0 3 10 19 19 26 29 26 26 26 26 29 26 23 23 13 13 6 6 6 3 3 6 3 0 0 0 0 0 0 3 3 3 0 0 0 0 0 0
0 0 0 0 0 0 0 0 0 0 0 3 10 13 16 16 29 26 32 23 23 29 26 19 23 26 26 13 6 13 6 10 6 3 3 3 0 0 3 3 3 3 3 0 0 0 3 3 3
0 0 0 0 0 0 0 0 0 0 0 3 3 10 19 19 26 26 23 16 23 19 19 26 26 29 26 26 19 16 13 10 6 6 3 3 3 3 3 3 3 3 0 0 0 3 3 3 3
0 0 0 0 0 0 0 0 0 0 0 3 6 10 16 16 16 19 19 23 19 19 23 26 26 23 29 32 26 23 23 13 16 13 6 6 3 0 3 0 0 0 0 0 0 0 3 3 3

GEFSSGP_con_cape1000_126.txt.gz
Probability
45 55 26 10 3 0 0 0 0 0 0 0 6 6 0 0 0 0 0 19 45 81 94 97 97 97 100 100 100 100 100 100 100 100 100 100 100 97 97 97 97 100 100 97 94 90 94 100 100
29 29 10 0 0 0 0 0 0 0 6 6 10 19 23 32 26 16 26 52 65 87 94 97 97 97 97 100 100 100 100 100 100 100 100 100 100 100 100 97 97 100 100 90 90 90 87 97 97
6 6 0 0 0 0 0 0 0 0 13 19 23 32 32 45 61 35 42 65 87 90 90 97 97 97 97 97 97 100 100 100 100 97 97 97 97 97 100 97 97 100 100 97 87 84 87 94 97
3 3 0 0 0 0 0 0 0 10 13 32 35 39 45 65 65 45 61 84 87 87 94 97 97 97 97 97 97 97 97 97 97 97 97 97 97 97 97 97 97 97 100 94 90 90 94 94 90
0 0 0 0 0 0 3 0 0 3 13 32 39 45 55 71 71 68 71 87 87 90 94 97 97 97 97 97 97 97 94 94 97 97 97 97 97 97 97 97 97 97 94 97 87 87 94 87 87
0 0 0 0 0 0 0 0 0 13 29 42 35 48 55 68 68 71 74 81 87 90 97 97 97 97 97 97 97 94 94 94 94 97 94 94 94 94 97 97 97 97 90 90 87 81 81 81 87
0 0 0 0 0 0 0 0 3 13 23 45 48 45 61 65 68 58 61 74 84 87 90 94 97 97 97 97 97 94 94 94 94 94 94 94 97 97 97 97 94 94 90 84 77 77 81 90 94
0 0 0 0 0 0 0 0 10 19 32 58 58 45 55 58 58 58 61 77 84 84 87 87 90 94 97 97 97 94 94 94 94 97 97 97 97 97 90 94 94 84 77 77 81 74 81 87 87
0 0 0 0 0 0 0 0 16 29 39 42 45 55 55 65 65 58 68 71 81 84 81 84 81 81 87 90 97 90 90 90 94 97 97 97 84 90 87 87 81 74 71 74 74 68 77 84 87
0 0 0 0 0 0 0 3 16 26 29 42 52 58 68 68 58 55 58 65 81 77 77 77 81 81 77 87 81 84 87 84 77 77 77 61 48 58 81 84 84 68 71 71 65 71 68 32 32
0 0 0 0 0 0 0 6 16 23 19 32 42 65 71 68 65 61 48 55 61 74 77 77 77 77 77 77 77 77 68 61 55 58 48 29 26 39 39 52 58 45 45 42 45 39 23 19 13
0 0 0 0 0 0 0 3 10 13 13 23 35 58 65 58 58 55 55 42 52 65 74 77 77 68 71 68 74 65 55 48 48 32 19 13 16 19 16 13 23 23 19 19 16 10 3 0 6
0 0 0 0 0 0 0 3 6 6 26 26 45 45 58 58 58 55 52 45 39 52 68 68 71 68 48 39 58 61 45 48 29 23 16 13 10 10 6 10 10 10 3 0 0 0 0 0 3
0 0 0 0 0 0 3 3 3 6 26 26 48 45 52 52 42 48 48 32 35 42 48 55 55 39 32 29 35 35 32 23 23 26 23 13 6 3 3 3 3 0 0 0 0 0 0 0 0
0 0 0 0 0 0 0 0 3 6 26 35 48 42 45 45 39 45 39 32 29 23 32 39 32 23 19 19 19 19 19 16 16 16 16 16 6 3 3 3 3 0 0 0 0 0 0 0 0
0 0 0 0 0 0 0 0 0 10 29 32 32 32 32 29 29 35 32 29 19 16 16 16 19 10 10 10 13 10 10 10 10 13 13 16 3 3 3 3 3 0 0 0 0 0 0 0 0
0 0 0 0 0 0 0 0 0 16 26 29 32 29 32 23 26 26 39 29 13 16 3 10 6 3 6 6 3 3 6 6 3 3 6 6 6 3 3 3 0 0 0 0 0 0 0 0 0
0 0 0 0 0 0 0 0 0 19 26 29 35 32 29 26 26 32 39 29 16 6 6 6 0 0 6 3 3 3 3 0 0 0 3 3 3 3 3 3 0 0 0 0 0 0 0 0 0
0 0 0 0 0 0 0 0 3 3 16 19 29 29 26 26 23 23 29 32 23 6 6 3 0 0 6 3 3 3 3 3 0 0 3 3 3 3 0 3 0 0 0 0 0 0 0 0 0
0 0 0 0 0 0 0 0 0 0 3 13 26 26 29 26 32 26 29 23 16 16 6 0 3 3 3 3 3 3 3 3 3 0 3 3 3 0 0 0 0 0 0 0 0 0 0 0 0
0 0 0 0 0 0 0 0 0 3 3 6 10 19 29 29 35 32 23 13 16 13 10 6 3 3 3 3 3 0 0 0 0 0 3 3 0 0 0 0 0 0 0 0 0 0 0 0 0
0 0 0 0 0 0 0 0 0 0 0 0 3 6 26 32 32 32 29 19 10 13 13 6 3 3 3 3 3 3 3 3 0 0 0 0 0 0 0 0 0 0 0 0 0 0 0 0 0
0 0 0 0 0 0 0 0 0 0 0 0 3 13 19 26 29 32 32 26 16 16 13 10 3 3 6 6 3 3 3 3 0 0 0 0 0 0 0 0 0 0 0 0 0 0 0 0 0
0 0 0 0 0 0 0 0 0 0 0 3 3 16 23 32 29 26 26 35 16 10 6 10 6 10 6 3 3 3 3 3 0 0 0 0 0 0 0 0 0 0 0 0 0 0 0 0 0
0 0 0 0 0 0 0 0 0 0 0 0 3 10 19 26 23 13 19 16 10 13 16 10 10 13 6 6 6 6 6 3 3 0 0 0 0 0 0 0 0 0 0 0 0 0 0 0 0
0 0 0 0 0 0 0 0 0 0 0 0 3 6 16 16 16 23 19 13 6 10 10 10 6 6 6 6 6 6 6 3 3 3 3 0 0 0 0 0 0 0 0 0 0 0 0 0 0
0 0 0 0 0 0 0 0 0 0 0 3 10 13 10 16 19 19 19 16 13 10 6 6 3 3 3 3 3 3 3 0 0 3 3 3 0 0 0 0 0 0 0 0 0 0 0 0 0
0 0 0 0 0 0 0 0 0 0 0 3 13 6 13 13 16 16 16 13 13 13 6 3 6 3 3 3 3 3 3 3 0 0 0 0 0 0 0 0 0 0 0 0 0 0 0 0 0
0 0 0 0 0 0 0 0 0 0 0 0 10 10 6 16 16 19 13 6 6 10 10 6 6 3 3 3 3 3 3 3 0 0 0 0 0 0 0 0 0 0 0 0 0 0 0 0 0
0 0 0 0 0 0 0 0 0 0 0 0 6 10 13 13 13 13 10 10 6 6 16 13 6 3 6 3 3 3 3 3 0 0 3 3 3 0 0 0 0 0 0 0 0 0 0 0 0

GEFSSGP_con_cape1000_132.txt.gz
Probability
29 42 48 74 74 3 0 0 0 0 0 0 0 0 0 0 0 26 52 23 23 58 77 97 97 97 100 97 97 100 100 100 100 100 100 97 97 97 97 94 94 90 87 90 90 97 94 87 94
26 29 45 61 19 0 0 0 0 0 0 0 0 0 0 16 42 61 55 39 35 65 74 84 97 97 97 97 97 97 97 97 100 100 100 97 97 97 97 90 94 87 87 90 90 94 94 94 97
16 16 29 10 0 0 0 0 0 0 6 3 6 19 23 39 61 68 58 42 52 61 84 97 97 97 97 97 97 97 97 97 97 100 100 100 100 100 97 97 97 87 87 87 87 90 87 94 97
19 19 23 6 0 0 0 0 0 10 10 10 13 35 61 74 81 71 68 52 52 71 81 97 97 97 97 97 97 97 97 94 94 94 97 97 97 97 97 97 97 94 94 84 90 81 84 94 97
6 10 3 0 0 0 0 0 0 3 6 19 16 29 68 87 77 77 68 58 68 65 84 97 97 97 97 97 97 97 94 94 94 94 94 97 97 97 97 97 97 97 94 87 90 87 87 94 94
10 3 0 0 0 0 0 0 0 0 13 23 19 35 81 94 87 84 65 68 65 68 84 94 94 94 97 97 97 94 94 94 94 94 94 94 94 97 97 97 94 94 90 87 94 90 87 97 87
0 0 0 0 0 0 0 0 0 3 26 35 29 45 87 94 84 84 74 77 68 71 84 94 94 94 94 94 90 90 94 94 94 94 94 97 94 97 97 97 94 97 94 90 90 87 87 90 90
0 0 0 0 0 0 0 0 6 10 29 45 39 42 81 90 81 81 77 81 84 84 84 90 84 90 87 90 90 94 94 94 94 94 94 94 94 94 94 97 97 90 84 77 87 81 74 87 94
0 0 0 0 0 0 0 0 13 23 35 52 58 74 87 90 77 81 81 84 94 94 84 84 81 81 77 77 84 94 90 90 90 90 90 94 87 90 90 84 87 81 81 84 81 84 74 84 87
0 0 0 0 0 0 0 0 13 19 35 52 71 87 87 87 84 81 81 84 87 87 84 81 81 81 77 74 84 84 87 87 87 90 87 84 87 87 81 84 87 84 84 81 81 81 65 68 74
0 0 0 0 0 0 0 0 3 6 16 42 61 81 87 84 81 81 81 81 87 87 87 81 81 84 84 84 84 84 87 87 87 84 84 84 77 87 77 87 87 87 77 68 65 45 42 52 68
0 0 0 0 0 0 0 3 3 23 29 39 55 77 87 84 84 81 81 81 81 84 81 81 77 84 87 84 84 84 84 87 87 87 81 81 84 77 74 77 84 77 68 65 39 58 48 45 55
0 0 0 0 0 0 0 6 19 32 35 45 65 77 84 84 84 77 81 81 81 84 84 81 77 77 90 87 81 81 87 81 77 90 81 74 61 68 61 71 74 48 52 55 48 45 55 48 52
0 0 0 0 0 0 3 6 16 26 55 55 68 77 77 77 74 71 71 74 74 74 81 81 74 71 87 90 90 84 84 90 71 74 68 61 55 61 55 65 68 48 39 39 39 35 58 48 52
0 0 0 0 0 0 0 3 19 42 45 58 65 68 71 71 71 74 71 71 68 71 71 77 71 71 87 90 84 87 90 74 68 74 71 65 55 68 48 45 48 39 35 48 39 39 39 45 42
0 0 0 0 0 0 0 0 26 42 55 55 65 68 74 74 71 68 71 71 68 71 71 68 52 61 77 87 84 71 61 68 74 77 74 74 77 74 77 55 45 45 26 39 29 26 19 19 26
0 0 0 0 0 0 0 0 19 39 55 61 61 71 71 74 68 65 61 68 68 65 68 68 52 65 74 77 84 71 77 77 65 71 74 71 65 61 52 55 55 35 29 32 23 26 13 19 29
0 0 0 0 0 0 0 3 19 35 52 65 71 77 65 71 74 61 58 61 61 61 68 68 65 65 68 61 71 68 68 65 61 68 74 71 61 55 42 48 39 26 29 35 32 29 29 29 39
0 0 0 0 0 0 0 6 6 35 48 58 71 74 74 61 68 65 61 58 55 58 65 65 74 68 74 58 55 58 58 58 58 74 61 61 61 52 61 26 45 35 32 29 19 26 26 23 26
0 0 0 0 0 0 0 0 0 26 55 52 58 74 74 65 68 65 65 55 52 65 58 58 65 65 52 55 71 61 58 55 48 52 61 61 55 58 35 35 29 35 39 32 29 29 19 19 16
0 0 0 0 0 0 0 0 13 29 35 48 48 65 68 68 65 65 58 52 52 52 61 48 58 52 52 61 61 48 55 55 39 45 52 45 52 55 39 26 26 26 23 26 42 35 32 19 16
0 0 0 0 0 0 0 0 0 16 23 29 42 52 61 68 71 65 65 58 55 58 65 61 61 58 68 71 45 35 35 35 45 48 42 45 42 35 29 29 32 39 26 29 23 10 16 23 10
0 0 0 0 0 0 0 0 0 3 10 10 35 55 65 71 77 68 65 61 61 58 61 65 65 68 65 58 58 52 35 45 42 35 42 48 45 32 29 26 29 35 35 19 16 13 19 10 16
0 0 0 0 0 0 0 0 0 0 3 0 16 58 65 77 71 68 65 65 65 58 55 58 61 68 61 48 45 48 45 39 35 48 39 45 48 48 32 26 29 32 19 26 26 23 19 23 23
0 0 0 0 0 0 0 0 0 3 6 6 19 48 65 71 77 68 65 68 65 55 52 52 58 65 65 52 42 45 42 39 42 29 39 42 35 39 35 23 29 29 32 29 19 29 16 19 29
0 0 0 0 0 0 0 0 3 10 13 19 26 48 68 71 71 71 65 71 65 61 58 52 61 71 68 65 65 58 55 45 45 35 35 39 32 35 29 26 23 23 26 13 23 16 16 19 19
0 0 0 0 0 0 0 0 10 10 16 32 35 52 58 68 71 74 68 68 65 68 65 55 61 71 74 71 74 74 58 52 39 52 42 35 52 19 26 23 23 23 23 19 29 19 19 23 6
0 0 0 0 0 0 0 0 0 26 32 42 61 58 65 61 74 71 68 68 65 61 65 58 65 61 71 71 68 58 65 71 58 55 48 52 52 29 39 29 29 29 35 45 45 23 23 26 16
0 0 0 0 0 0 0 0 0 26 39 45 55 58 58 65 65 71 68 65 61 58 58 61 61 55 61 52 61 58 68 61 68 65 45 45 48 61 45 48 39 35 32 42 48 19 13 13 16
0 0 0 0 0 0 0 0 0 23 32 45 65 61 65 65 68 61 68 68 61 58 55 52 55 45 52 58 65 65 71 55 58 55 48 58 52 48 45 35 32 29 23 26 23 23 13 10 10

GEFSSGP_con_cape1000_138.txt.gz
Probability
10 16 48 84 84 74 10 0 0 0 0 0 0 0 3 13 13 29 16 55 71 58 90 100 100 100 100 100 100 100 97 97 100 100 100 97 97 97 97 97 94 94 94 100 97 94 94 90 90
3 26 45 68 65 3 0 0 0 0 0 0 0 0 6 13 23 29 35 77 68 61 74 97 100 100 100 100 97 97 97 97 97 100 100 97 97 97 97 90 90 97 100 97 94 94 97 97 94
6 23 29 55 19 3 0 0 0 0 0 0 3 10 16 26 23 39 61 68 65 55 87 97 100 100 100 97 97 97 97 97 97 97 100 100 100 97 94 100 100 97 97 94 90 94 100 94 87
16 26 29 19 3 0 0 0 0 0 0 0 6 23 42 35 35 45 55 71 65 74 90 97 97 97 97 97 97 97 97 97 94 94 94 94 97 100 97 100 97 94 97 94 94 90 97 97 87
6 13 10 3 0 0 0 0 0 3 3 6 16 42 52 48 48 52 65 74 71 77 90 97 97 97 97 97 97 97 90 94 94 94 94 94 97 97 94 97 100 97 97 94 90 90 97 94 77
3 3 0 0 0 0 0 0 0 0 3 3 23 58 68 71 58 61 68 77 77 77 74 94 97 97 94 94 94 90 90 94 94 94 94 94 94 97 97 97 97 97 97 94 94 87 90 94 71
0 0 0 0 0 0 0 0 0 0 6 6 23 65 77 71 74 71 68 84 84 81 81 90 94 94 94 94 90 90 90 90 94 94 94 94 94 94 94 97 97 97 97 97 90 81 90 87 65
0 0 0 0 0 0 0 0 0 0 6 6 23 65 84 81 81 77 81 81 87 87 81 84 81 94 90 87 87 90 90 90 94 94 94 94 94 94 94 97 97 94 87 90 87 84 81 84 65
0 0 0 0 0 0 0 0 0 0 6 10 39 81 87 87 77 71 77 77 90 90 87 77 77 84 77 77 84 84 84 87 90 90 90 90 90 90 94 90 94 84 90 87 84 84 81 84 68
0 0 0 0 0 0 0 0 0 0 6 23 61 84 84 84 87 84 77 84 87 94 81 84 84 81 77 74 81 84 81 84 87 90 90 90 90 90 87 90 84 81 84 84 81 87 81 74 45
0 0 0 0 0 0 0 0 0 0 0 19 68 84 84 84 84 81 87 87 84 84 81 77 77 81 77 81 81 81 84 84 87 87 87 87 90 87 90 87 84 87 74 68 71 81 61 65 68
0 0 0 0 0 0 0 0 0 3 13 29 61 74 87 84 84 77 81 84 84 84 81 77 84 84 84 84 84 84 84 84 87 87 87 87 87 84 84 94 87 90 84 87 71 87 74 68 68
0 0 0 0 0 0 0 0 0 10 26 39 65 71 81 81 77 81 84 87 84 81 81 77 74 81 87 87 87 81 84 84 87 84 84 87 84 84 84 87 87 81 84 90 84 90 84 77 77
0 0 0 0 0 0 0 0 0 13 23 39 61 74 77 71 71 84 84 84 81 77 81 77 81 81 81 84 90 87 81 77 81 84 87 81 87 87 84 87 87 84 87 87 87 90 90 81 97
0 0 0 0 0 0 0 0 0 13 23 39 55 71 77 77 74 74 74 81 81 77 74 68 71 77 77 77 90 84 84 81 81 87 90 84 84 87 94 90 87 87 84 81 90 87 90 90 90
0 0 0 0 0 0 0 0 3 19 19 42 48 71 77 81 77 71 74 77 77 77 74 68 65 68 81 81 87 81 77 81 81 84 90 87 87 87 97 87 87 87 84 90 94 87 84 84 94
0 0 0 0 0 0 0 0 3 16 23 45 55 74 77 81 77 71 71 77 74 77 77 74 81 77 74 77 87 81 81 87 68 81 81 87 90 84 87 87 87 81 77 77 45 84 87 81 87
0 0 0 0 0 0 0 0 10 6 19 48 58 71 74 74 77 77 74 77 77 74 71 71 77 68 77 77 84 81 81 87 84 77 81 81 90 84 81 77 71 71 74 71 81 77 84 81 74
0 0 0 0 0 0 0 0 0 13 10 55 61 68 81 81 77 77 77 77 71 77 68 74 71 65 71 77 74 68 68 81 81 77 71 74 77 81 81 74 65 71 74 68 61 61 58 65 68
0 0 0 0 0 0 0 0 0 10 3 39 61 77 74 84 77 74 71 65 68 71 65 71 74 74 71 81 77 71 74 77 81 81 81 81 68 74 65 74 65 61 81 61 58 68 71 61 71
0 0 0 0 0 0 0 0 3 3 10 19 45 74 74 81 74 65 68 65 68 65 65 65 71 74 81 77 71 61 71 74 71 74 81 81 71 65 65 65 61 74 65 68 61 61 58 71 65
0 0 0 0 0 0 0 0 6 3 13 23 35 74 71 74 77 68 65 68 65 61 71 77 77 77 81 84 74 58 61 61 71 77 77 81 71 58 61 55 58 58 65 77 68 61 65 65 52
0 0 0 0 0 0 0 0 0 13 13 16 32 58 68 65 74 71 68 71 68 61 65 74 81 81 87 81 84 74 65 58 58 74 81 71 74 58 58 65 61 61 74 68 65 71 58 58 55
0 0 0 0 0 0 0 0 6 0 6 16 32 48 74 68 77 71 77 77 74 65 71 74 81 84 87 81 81 81 71 68 68 68 68 68 74 68 58 58 65 65 65 68 55 55 48 58 65
0 0 0 0 0 0 0 0 10 10 3 19 35 55 74 77 74 74 71 81 77 71 71 68 81 81 87 81 81 81 71 68 65 61 68 61 58 58 68 52 65 65 68 58 55 58 52 55 58
0 0 0 0 0 0 0 0 13 6 16 29 35 52 68 71 68 68 65 68 74 71 71 68 74 81 81 77 81 84 84 65 65 55 61 58 61 52 68 68 61 52 45 39 58 55 39 39 48
0 0 0 0 0 0 0 6 16 13 16 23 32 52 61 77 81 68 65 68 71 71 74 74 74 81 77 84 84 81 77 71 71 74 55 52 77 65 74 68 65 61 55 45 45 39 42 48 42
0 0 0 0 0 0 0 0 10 19 29 26 52 55 77 77 81 74 71 68 71 74 74 74 77 84 84 81 81 58 71 71 68 65 61 71 77 71 68 74 71 58 55 42 48 42 48 55 52
0 0 0 0 0 0 0 0 6 23 39 42 52 55 77 77 74 77 77 77 74 74 74 74 74 84 81 77 74 81 71 74 65 71 74 71 74 68 68 68 74 71 61 61 55 42 58 48 45
0 0 0 0 10 3 0 0 6 26 26 35 45 65 68 74 81 77 74 74 77 74 71 71 71 77 77 74 71 74 74 71 61 68 71 65 65 61 58 61 61 58 45 61 58 52 45 48 29

GEFSSGP_con_cape1000_144.txt.gz
Probability
19 10 3 29 26 10 0 0 0 0 0 0 3 3 6 10 0 3 13 35 58 94 100 100 100 100 100 100 100 100 100 100 100 100 97 100 100 100 100 100 100 100 97 97 94 97 94 94 100
0 3 10 16 6 0 0 0 0 0 0 0 3 6 16 19 39 39 29 48 84 94 97 100 100 100 100 100 100 100 100 100 100 100 97 97 100 100 100 100 100 100 100 94 97 97 94 90 90
0 0 6 10 0 0 0 0 0 0 6 6 3 6 19 42 55 42 35 58 84 90 97 100 100 100 100 100 100 100 100 100 100 100 100 100 100 100 100 100 100 100 100 97 97 90 87 84 84
0 0 3 6 3 3 0 0 3 10 13 10 16 23 32 52 61 42 48 65 77 87 97 100 100 100 100 100 100 100 100 100 100 100 100 100 100 100 97 100 100 97 97 97 97 94 87 81 94
0 0 0 0 0 0 0 0 0 6 16 19 19 32 39 58 58 52 45 61 87 87 94 100 100 100 100 100 100 100 100 97 97 97 100 100 100 100 100 97 100 97 97 94 94 87 81 84 87
0 0 0 0 0 0 0 0 6 13 23 29 23 29 39 58 48 45 48 71 84 90 90 100 100 100 97 97 97 97 97 94 94 94 94 94 94 97 97 100 100 97 97 94 94 87 87 81 77
0 0 0 0 0 0 0 3 10 13 23 35 39 26 23 48 52 52 65 74 81 84 87 90 97 97 97 97 97 94 94 94 94 94 94 94 94 94 94 100 100 97 97 94 87 84 74 81 71
0 0 0 0 0 0 0 0 10 23 26 39 45 29 26 42 42 58 68 74 74 84 87 87 87 94 94 94 94 94 94 94 94 94 94 94 94 94 94 97 100 97 94 84 77 71 65 71 71
0 0 0 0 0 0 3 3 16 19 35 45 52 48 26 39 42 48 55 71 74 77 81 81 84 81 87 87 87 87 94 94 94 94 97 94 87 87 97 97 97 94 84 81 71 65 65 65 71
0 0 0 0 0 0 0 0 6 29 42 52 58 55 42 39 45 52 48 55 61 61 61 74 74 71 71 81 77 77 84 84 84 87 87 61 45 48 84 94 97 87 74 77 77 74 74 39 23
0 0 0 0 0 0 0 0 0 10 35 48 55 48 42 39 42 48 52 42 45 52 58 65 68 65 61 68 68 65 68 74 68 68 61 48 52 52 45 58 74 68 61 42 61 48 32 26 13
0 0 0 0 0 0 0 3 6 19 19 48 52 42 42 39 42 55 48 45 39 39 48 61 61 58 58 61 65 61 55 58 52 52 45 39 42 32 35 35 32 32 29 19 26 26 16 16 10
0 0 0 0 0 0 3 6 19 26 32 52 55 45 39 32 32 39 42 45 42 42 39 45 45 52 45 55 48 58 55 42 39 45 45 42 29 26 23 19 19 23 16 13 16 6 10 0 3
0 0 0 0 0 0 0 6 16 35 42 55 55 52 45 45 42 42 48 42 35 29 35 29 35 29 35 35 35 39 35 35 35 35 39 39 32 26 26 23 16 13 10 10 10 0 0 0 0
0 0 0 0 0 0 3 10 16 39 48 58 48 55 52 45 48 52 52 42 32 35 42 32 35 42 32 32 35 32 35 39 35 35 39 26 29 23 23 16 10 6 6 6 3 0 0 0 0
0 0 0 0 0 0 0 10 10 29 55 58 55 48 55 45 42 45 55 52 42 42 39 35 39 32 26 23 23 19 26 35 29 26 26 29 19 19 16 13 6 6 6 3 0 3 3 0 0
0 0 0 0 0 0 0 6 6 23 52 58 58 45 52 45 45 48 58 58 48 42 35 39 35 23 26 19 19 23 19 26 23 26 26 19 16 23 16 10 6 3 3 3 0 3 0 0 0
0 0 0 0 0 0 0 3 10 26 42 52 65 55 61 58 58 65 65 58 52 45 42 29 29 26 23 19 23 16 13 10 19 19 16 16 19 19 6 3 6 6 3 0 0 0 0 0 0
0 0 0 0 0 0 0 10 13 13 35 42 58 65 65 61 68 65 61 55 52 45 35 29 29 23 19 16 13 16 13 13 19 13 16 13 16 23 10 10 6 6 6 0 0 0 0 0 0
0 0 0 0 0 0 0 6 3 13 35 35 55 61 58 65 65 58 58 48 48 42 29 26 29 19 19 16 10 10 10 13 6 10 13 13 13 13 16 6 6 3 0 0 0 0 0 0 0
0 0 0 0 0 0 3 3 6 16 26 39 48 61 58 68 58 52 55 45 45 39 39 29 23 23 13 13 6 6 10 3 3 10 13 16 16 16 10 6 6 3 0 0 0 0 0 0 0
0 0 0 0 0 0 0 0 6 23 35 39 48 45 55 55 58 55 55 52 42 45 42 35 23 16 10 13 16 6 10 3 3 0 0 6 10 13 6 6 6 3 3 0 0 0 0 0 0
0 0 0 0 0 0 0 0 0 13 23 39 45 48 55 55 55 52 52 48 42 45 39 35 29 23 16 23 13 10 3 3 3 0 0 0 0 10 3 3 3 0 0 0 0 0 0 0 0
0 0 0 0 0 0 0 0 0 3 16 26 39 55 55 58 61 55 45 42 45 39 39 39 39 23 23 23 16 10 3 6 3 0 0 0 0 3 3 6 3 0 0 0 0 0 0 0 0
0 0 0 0 0 0 0 0 0 3 13 26 32 58 61 52 48 45 42 45 42 45 39 39 42 32 29 23 19 13 6 6 3 3 0 0 0 0 3 10 6 3 0 0 0 0 0 0 0
0 0 0 0 0 0 0 0 3 10 16 32 35 55 52 52 45 45 42 42 48 45 42 39 39 42 29 29 23 13 6 6 3 3 0 0 3 0 0 3 6 10 6 6 0 0 0 0 0
0 0 0 0 0 0 0 0 3 6 16 29 39 48 52 45 42 45 45 45 45 42 42 42 32 35 35 23 16 19 6 3 3 3 6 3 3 3 3 0 3 6 3 0 0 0 0 0 0
0 0 0 0 0 0 0 0 0 0 16 32 45 48 45 42 48 48 42 42 45 39 45 42 35 39 35 32 16 13 10 6 3 3 0 6 6 6 6 3 3 3 6 0 0 0 0 0 0
0 0 0 0 0 0 0 0 0 3 23 35 39 45 45 35 45 45 45 42 42 42 39 42 35 32 32 29 16 19 3 3 6 3 0 0 0 3 0 0 0 0 0 0 0 0 0 0 0
0 0 0 0 0 0 0 0 3 3 16 29 23 42 35 26 35 35 45 45 52 45 39 42 39 32 35 29 23 13 13 16 13 6 0 0 0 0 0 0 0 0 0 0 0 0 0 0 0